Wetterdaten: aktuell Sonntag, 26.05.2019 12:59
Datum Zeit Temp. A. Boden +5cm Boden -5cm Boden -10cm Boden -20cm Feuchte A. Blattfeuchte Bodenf. -5cm Bodenf.-10cm Bodenf.-20cm Bodenf.-50cm Luftdruck Regen Wind Richtung Richtung Sonnenschein ET UV Solar Taupunkt Windchill Windben
26.05.2019 12:59 18,4 C 22,8 C 17,8 C 14,4 C 12,8 C 63 % 0 lf 186 cb 99 cb 79 cb 10 cb 1015,1 hPa 0,0 l/m 4,6 km/h (1 Bft) W-SW 244 0 min 0,000 mm 3,2 UV-I 357 W/m 11,2 C 18,4 C 16,1 km/h (3 Bft)
26.05.2019 12:57 18,6 C 23,3 C 17,8 C 14,4 C 12,8 C 62 % 0 lf 188 cb 99 cb 79 cb 10 cb 1015,0 hPa 0,0 l/m 2,2 km/h (1 Bft) SW 234 0 min 0,000 mm 3,6 UV-I 381 W/m 11,2 C 18,6 C 9,7 km/h (2 Bft)
26.05.2019 12:55 18,6 C 23,3 C 17,8 C 14,4 C 12,8 C 62 % 0 lf 187 cb 99 cb 79 cb 10 cb 1015,0 hPa 0,0 l/m 10,0 km/h (2 Bft) W-SW 240 0 min 0,000 mm 3,6 UV-I 396 W/m 11,2 C 17,1 C 17,7 km/h (3 Bft)
26.05.2019 12:53 18,6 C 23,3 C 17,8 C 13,9 C 12,8 C 63 % 0 lf 187 cb 99 cb 78 cb 10 cb 1015,1 hPa 0,0 l/m 8,7 km/h (2 Bft) W-SW 248 0 min 0,000 mm 3,6 UV-I 392 W/m 11,4 C 17,6 C 17,7 km/h (3 Bft)
26.05.2019 12:51 18,6 C 23,3 C 17,2 C 13,9 C 12,8 C 63 % 0 lf 187 cb 98 cb 78 cb 10 cb 1015,1 hPa 0,0 l/m 3,1 km/h (1 Bft) W-SW 247 0 min 0,000 mm 3,6 UV-I 394 W/m 11,4 C 18,6 C 9,7 km/h (2 Bft)
26.05.2019 12:49 18,6 C 23,3 C 17,2 C 13,9 C 12,8 C 61 % 0 lf 187 cb 98 cb 78 cb 10 cb 1015,0 hPa 0,0 l/m 8,3 km/h (2 Bft) W-SW 240 0 min 0,000 mm 3,6 UV-I 399 W/m 10,9 C 17,8 C 17,7 km/h (3 Bft)
26.05.2019 12:47 18,6 C 23,9 C 17,2 C 13,9 C 12,8 C 63 % 0 lf 189 cb 98 cb 78 cb 10 cb 1015,1 hPa 0,0 l/m 5,2 km/h (1 Bft) W-SW 251 0 min 0,000 mm 3,5 UV-I 388 W/m 11,4 C 18,6 C 16,1 km/h (3 Bft)
26.05.2019 12:45 18,6 C 23,9 C 17,2 C 13,9 C 12,8 C 62 % 0 lf 189 cb 98 cb 78 cb 10 cb 1015,0 hPa 0,0 l/m 2,4 km/h (1 Bft) W-SW 251 0 min 0,000 mm 3,5 UV-I 392 W/m 11,2 C 18,6 C 6,4 km/h (2 Bft)
26.05.2019 12:43 18,6 C 23,9 C 17,2 C 13,9 C 12,8 C 63 % 0 lf 189 cb 98 cb 78 cb 10 cb 1015,1 hPa 0,0 l/m 4,9 km/h (1 Bft) W-SW 248 0 min 0,000 mm 3,6 UV-I 403 W/m 11,4 C 18,6 C 11,3 km/h (2 Bft)
26.05.2019 12:41 18,6 C 23,9 C 17,2 C 13,9 C 12,8 C 65 % 0 lf 189 cb 99 cb 78 cb 10 cb 1015,1 hPa 0,0 l/m 3,7 km/h (1 Bft) SW 225 0 min 0,000 mm 3,8 UV-I 425 W/m 11,9 C 18,6 C 11,3 km/h (2 Bft)
26.05.2019 12:39 18,6 C 23,9 C 17,2 C 13,9 C 12,8 C 62 % 0 lf 189 cb 99 cb 78 cb 10 cb 1015,1 hPa 0,0 l/m 7,4 km/h (2 Bft) W-SW 246 0 min 0,000 mm 3,9 UV-I 443 W/m 11,2 C 18,1 C 17,7 km/h (3 Bft)
26.05.2019 12:37 18,5 C 24,4 C 17,2 C 13,9 C 12,8 C 63 % 0 lf 192 cb 99 cb 78 cb 10 cb 1015,1 hPa 0,0 l/m 8,5 km/h (2 Bft) W 266 0 min 0,000 mm 3,5 UV-I 399 W/m 11,3 C 17,6 C 14,5 km/h (3 Bft)
26.05.2019 12:35 18,4 C 24,4 C 17,2 C 13,9 C 12,8 C 64 % 0 lf 192 cb 99 cb 79 cb 10 cb 1015,1 hPa 0,0 l/m 3,2 km/h (1 Bft) S-SW 209 2 min 0,000 mm 4,0 UV-I 466 W/m 11,5 C 18,4 C 14,5 km/h (3 Bft)
26.05.2019 12:33 18,4 C 24,4 C 17,2 C 13,9 C 12,8 C 63 % 0 lf 193 cb 99 cb 79 cb 10 cb 1015,1 hPa 0,0 l/m 5,7 km/h (1 Bft) W 273 2 min 0,000 mm 4,2 UV-I 469 W/m 11,2 C 18,4 C 17,7 km/h (3 Bft)
26.05.2019 12:31 18,3 C 24,4 C 16,7 C 13,9 C 12,8 C 63 % 0 lf 192 cb 98 cb 79 cb 10 cb 1015,1 hPa 0,0 l/m 1,5 km/h (1 Bft) W 266 2 min 0,000 mm 4,1 UV-I 464 W/m 11,1 C 18,3 C 9,7 km/h (2 Bft)
26.05.2019 12:29 18,2 C 24,4 C 16,7 C 13,9 C 12,8 C 64 % 0 lf 193 cb 98 cb 79 cb 10 cb 1015,2 hPa 0,0 l/m 3,6 km/h (1 Bft) W 265 2 min 0,000 mm 4,0 UV-I 464 W/m 11,3 C 18,2 C 11,3 km/h (2 Bft)
26.05.2019 12:27 18,2 C 24,4 C 16,7 C 13,9 C 12,8 C 64 % 0 lf 193 cb 98 cb 79 cb 10 cb 1015,1 hPa 0,0 l/m 6,6 km/h (2 Bft) W 273 2 min 0,000 mm 4,4 UV-I 538 W/m 11,3 C 18,1 C 17,7 km/h (3 Bft)
26.05.2019 12:25 18,1 C 23,9 C 16,7 C 13,9 C 12,8 C 63 % 0 lf 192 cb 98 cb 79 cb 10 cb 1015,1 hPa 0,0 l/m 4,8 km/h (1 Bft) W 261 2 min 0,000 mm 4,8 UV-I 573 W/m 10,9 C 18,1 C 16,1 km/h (3 Bft)
26.05.2019 12:23 18,1 C 23,3 C 16,7 C 13,9 C 12,8 C 63 % 0 lf 189 cb 98 cb 79 cb 10 cb 1015,2 hPa 0,0 l/m 4,5 km/h (1 Bft) W-NW 283 2 min 0,000 mm 4,3 UV-I 483 W/m 10,9 C 18,1 C 17,7 km/h (3 Bft)
26.05.2019 12:21 18,1 C 23,3 C 16,7 C 13,9 C 12,2 C 65 % 0 lf 189 cb 98 cb 79 cb 10 cb 1015,2 hPa 0,0 l/m 6,8 km/h (2 Bft) SW 222 2 min 0,000 mm 4,1 UV-I 466 W/m 11,4 C 17,9 C 14,5 km/h (3 Bft)
26.05.2019 12:19 18,1 C 22,8 C 16,1 C 13,9 C 12,2 C 63 % 0 lf 187 cb 97 cb 79 cb 10 cb 1015,1 hPa 0,0 l/m 3,7 km/h (1 Bft) W 267 0 min 0,000 mm 3,8 UV-I 406 W/m 10,9 C 18,1 C 16,1 km/h (3 Bft)
26.05.2019 12:17 18,1 C 23,3 C 16,1 C 13,9 C 12,2 C 65 % 0 lf 189 cb 97 cb 79 cb 10 cb 1015,1 hPa 0,0 l/m 4,5 km/h (1 Bft) SW 227 0 min 0,000 mm 3,5 UV-I 383 W/m 11,4 C 18,1 C 16,1 km/h (3 Bft)
26.05.2019 12:15 18,1 C 23,3 C 16,1 C 13,9 C 12,2 C 63 % 0 lf 190 cb 97 cb 79 cb 10 cb 1015,2 hPa 0,0 l/m 2,3 km/h (1 Bft) W-SW 252 2 min 0,000 mm 4,4 UV-I 499 W/m 10,9 C 18,1 C 9,7 km/h (2 Bft)
26.05.2019 12:13 17,9 C 23,3 C 16,1 C 13,3 C 12,2 C 62 % 0 lf 190 cb 97 cb 78 cb 10 cb 1015,2 hPa 0,0 l/m 5,6 km/h (1 Bft) W-SW 252 2 min 0,000 mm 4,2 UV-I 469 W/m 10,5 C 17,9 C 14,5 km/h (3 Bft)
26.05.2019 12:11 17,9 C 23,3 C 16,1 C 13,3 C 12,2 C 63 % 0 lf 190 cb 98 cb 78 cb 10 cb 1015,2 hPa 0,0 l/m 6,2 km/h (2 Bft) W-NW 290 0 min 0,000 mm 3,6 UV-I 406 W/m 10,8 C 17,9 C 14,5 km/h (3 Bft)
26.05.2019 12:09 17,8 C 23,3 C 16,1 C 13,3 C 12,2 C 63 % 0 lf 190 cb 98 cb 78 cb 10 cb 1015,3 hPa 0,0 l/m 11,9 km/h (2 Bft) W-SW 256 0 min 0,000 mm 3,8 UV-I 413 W/m 10,7 C 15,5 C 22,5 km/h (4 Bft)
26.05.2019 12:07 17,8 C 23,3 C 16,1 C 13,3 C 12,2 C 63 % 0 lf 192 cb 98 cb 78 cb 10 cb 1015,2 hPa 0,0 l/m 10,4 km/h (2 Bft) W 265 2 min 0,000 mm 4,3 UV-I 471 W/m 10,7 C 16,1 C 22,5 km/h (4 Bft)
26.05.2019 12:05 17,7 C 22,8 C 15,6 C 13,3 C 12,2 C 66 % 0 lf 189 cb 97 cb 78 cb 10 cb 1015,2 hPa 0,0 l/m 6,3 km/h (2 Bft) W 275 0 min 0,000 mm 4,3 UV-I 434 W/m 11,3 C 17,7 C 14,5 km/h (3 Bft)
26.05.2019 12:03 17,7 C 21,7 C 15,6 C 13,3 C 12,2 C 65 % 0 lf 186 cb 97 cb 78 cb 10 cb 1015,2 hPa 0,0 l/m 4,1 km/h (1 Bft) W 277 2 min 0,000 mm 5,1 UV-I 497 W/m 11,0 C 17,7 C 11,3 km/h (2 Bft)
26.05.2019 12:01 17,7 C 21,7 C 15,6 C 13,3 C 12,2 C 64 % 0 lf 186 cb 97 cb 78 cb 10 cb 1015,2 hPa 0,0 l/m 2,4 km/h (1 Bft) S-SW 200 0 min 0,330 mm 4,1 UV-I 404 W/m 10,8 C 17,7 C 11,3 km/h (2 Bft)
26.05.2019 11:59 17,7 C 21,7 C 15,6 C 13,3 C 12,2 C 65 % 0 lf 186 cb 97 cb 78 cb 10 cb 1015,2 hPa 0,0 l/m 2,3 km/h (1 Bft) SW 231 0 min 0,000 mm 3,8 UV-I 388 W/m 11,0 C 17,7 C 9,7 km/h (2 Bft)
26.05.2019 11:57 17,7 C 21,7 C 15,6 C 13,3 C 12,2 C 65 % 0 lf 186 cb 97 cb 78 cb 10 cb 1015,2 hPa 0,0 l/m 4,8 km/h (1 Bft) W 261 0 min 0,000 mm 3,9 UV-I 406 W/m 11,0 C 17,7 C 16,1 km/h (3 Bft)
26.05.2019 11:55 17,7 C 21,7 C 15,6 C 13,3 C 12,2 C 65 % 0 lf 187 cb 97 cb 78 cb 10 cb 1015,2 hPa 0,0 l/m 4,7 km/h (1 Bft) W 261 0 min 0,000 mm 3,8 UV-I 387 W/m 11,0 C 17,7 C 16,1 km/h (3 Bft)
26.05.2019 11:53 17,7 C 21,1 C 15,6 C 13,3 C 12,2 C 64 % 0 lf 185 cb 97 cb 78 cb 10 cb 1015,2 hPa 0,0 l/m 3,6 km/h (1 Bft) W-SW 242 0 min 0,000 mm 4,3 UV-I 441 W/m 10,8 C 17,7 C 9,7 km/h (2 Bft)
26.05.2019 11:51 17,7 C 21,1 C 15,0 C 13,3 C 12,2 C 63 % 0 lf 185 cb 96 cb 78 cb 10 cb 1015,2 hPa 0,0 l/m 7,6 km/h (2 Bft) S-SW 193 0 min 0,000 mm 4,0 UV-I 431 W/m 10,6 C 17,1 C 19,3 km/h (3 Bft)
26.05.2019 11:49 17,8 C 21,1 C 15,0 C 13,3 C 12,2 C 63 % 0 lf 185 cb 96 cb 78 cb 10 cb 1015,2 hPa 0,0 l/m 8,6 km/h (2 Bft) W 276 0 min 0,000 mm 3,7 UV-I 397 W/m 10,7 C 16,8 C 16,1 km/h (3 Bft)
26.05.2019 11:47 17,8 C 21,1 C 15,0 C 13,3 C 12,2 C 64 % 0 lf 186 cb 96 cb 78 cb 10 cb 1015,2 hPa 0,0 l/m 8,0 km/h (2 Bft) SW 225 0 min 0,000 mm 3,3 UV-I 362 W/m 10,9 C 17,0 C 17,7 km/h (3 Bft)
26.05.2019 11:45 17,9 C 21,1 C 15,0 C 13,3 C 12,2 C 64 % 0 lf 186 cb 97 cb 78 cb 10 cb 1015,2 hPa 0,0 l/m 1,9 km/h (1 Bft) W-SW 257 0 min 0,000 mm 3,3 UV-I 359 W/m 11,0 C 17,9 C 9,7 km/h (2 Bft)
26.05.2019 11:43 17,9 C 21,1 C 15,0 C 13,3 C 12,2 C 62 % 0 lf 186 cb 97 cb 78 cb 10 cb 1015,2 hPa 0,0 l/m 3,5 km/h (1 Bft) W 278 0 min 0,000 mm 3,2 UV-I 339 W/m 10,5 C 17,9 C 6,4 km/h (2 Bft)
26.05.2019 11:42 18,0 C 21,1 C 15,0 C 13,3 C 12,2 C 62 % 0 lf 186 cb 97 cb 78 cb 10 cb 1015,2 hPa 0,0 l/m 5,8 km/h (2 Bft) W-NW 282 0 min 0,000 mm 3,1 UV-I 325 W/m 10,6 C 18,0 C 8,0 km/h (2 Bft)
26.05.2019 11:41 18,1 C 21,1 C 15,0 C 13,3 C 12,2 C 62 % 0 lf 186 cb 97 cb 78 cb 10 cb 1015,3 hPa 0,0 l/m 3,0 km/h (1 Bft) W-NW 283 0 min 0,000 mm 3,0 UV-I 322 W/m 10,7 C 18,1 C 9,7 km/h (2 Bft)
26.05.2019 11:39 18,2 C 21,1 C 15,0 C 13,3 C 12,2 C 61 % 0 lf 186 cb 97 cb 78 cb 10 cb 1015,2 hPa 0,0 l/m 1,9 km/h (1 Bft) W-SW 243 0 min 0,000 mm 3,2 UV-I 369 W/m 10,6 C 18,2 C 9,7 km/h (2 Bft)
26.05.2019 11:37 18,2 C 20,6 C 14,4 C 13,3 C 12,2 C 62 % 0 lf 185 cb 96 cb 78 cb 10 cb 1015,3 hPa 0,0 l/m 5,6 km/h (1 Bft) W 259 2 min 0,000 mm 3,8 UV-I 432 W/m 10,8 C 18,2 C 11,3 km/h (2 Bft)
26.05.2019 11:35 18,3 C 20,6 C 14,4 C 13,3 C 12,2 C 61 % 0 lf 186 cb 96 cb 78 cb 10 cb 1015,3 hPa 0,0 l/m 8,2 km/h (2 Bft) W 263 0 min 0,000 mm 3,5 UV-I 417 W/m 10,6 C 17,5 C 17,7 km/h (3 Bft)
26.05.2019 11:33 18,3 C 20,0 C 14,4 C 13,3 C 12,2 C 62 % 0 lf 184 cb 96 cb 78 cb 10 cb 1015,3 hPa 0,0 l/m 6,6 km/h (2 Bft) W 262 0 min 0,000 mm 3,3 UV-I 353 W/m 10,9 C 18,2 C 17,7 km/h (3 Bft)
26.05.2019 11:31 18,3 C 19,4 C 14,4 C 13,3 C 12,2 C 62 % 0 lf 183 cb 96 cb 78 cb 10 cb 1015,3 hPa 0,0 l/m 6,0 km/h (2 Bft) W 262 0 min 0,000 mm 3,4 UV-I 378 W/m 10,9 C 18,3 C 16,1 km/h (3 Bft)
26.05.2019 11:29 18,3 C 18,3 C 13,9 C 13,3 C 12,2 C 63 % 0 lf 180 cb 95 cb 78 cb 10 cb 1015,2 hPa 0,0 l/m 7,1 km/h (2 Bft) W 266 0 min 0,000 mm 4,1 UV-I 422 W/m 11,1 C 18,0 C 19,3 km/h (3 Bft)
26.05.2019 11:27 18,2 C 17,8 C 13,9 C 13,3 C 12,2 C 63 % 0 lf 179 cb 95 cb 78 cb 10 cb 1015,3 hPa 0,0 l/m 5,8 km/h (2 Bft) W-SW 248 2 min 0,000 mm 5,3 UV-I 557 W/m 11,0 C 18,2 C 11,3 km/h (2 Bft)
26.05.2019 11:25 18,2 C 16,7 C 13,9 C 13,3 C 12,2 C 62 % 0 lf 176 cb 95 cb 78 cb 10 cb 1015,3 hPa 0,0 l/m 5,3 km/h (1 Bft) W 273 2 min 0,000 mm 5,5 UV-I 731 W/m 10,8 C 18,2 C 11,3 km/h (2 Bft)
26.05.2019 11:23 18,2 C 16,7 C 13,9 C 12,8 C 12,2 C 61 % 0 lf 176 cb 95 cb 77 cb 10 cb 1015,3 hPa 0,0 l/m 2,7 km/h (1 Bft) W 259 1 min 0,000 mm 5,6 UV-I 809 W/m 10,6 C 18,2 C 4,8 km/h (1 Bft)
26.05.2019 11:22 18,2 C 16,1 C 13,9 C 12,8 C 12,2 C 61 % 0 lf 174 cb 95 cb 77 cb 10 cb 1015,3 hPa 0,0 l/m 2,4 km/h (1 Bft) W 259 1 min 0,000 mm 5,6 UV-I 802 W/m 10,6 C 18,2 C 6,4 km/h (2 Bft)
26.05.2019 11:21 18,1 C 16,1 C 13,9 C 12,8 C 12,2 C 62 % 0 lf 175 cb 95 cb 77 cb 10 cb 1015,3 hPa 0,0 l/m 2,7 km/h (1 Bft) W 260 2 min 0,000 mm 5,5 UV-I 782 W/m 10,7 C 18,1 C 8,0 km/h (2 Bft)
26.05.2019 11:19 18,1 C 16,1 C 13,9 C 12,8 C 12,2 C 61 % 0 lf 175 cb 95 cb 77 cb 10 cb 1015,3 hPa 0,0 l/m 6,9 km/h (2 Bft) W 261 2 min 0,000 mm 5,4 UV-I 759 W/m 10,5 C 17,9 C 16,1 km/h (3 Bft)
26.05.2019 11:17 18,1 C 16,1 C 13,9 C 12,8 C 12,2 C 61 % 0 lf 175 cb 95 cb 77 cb 10 cb 1015,3 hPa 0,0 l/m 8,5 km/h (2 Bft) W 265 2 min 0,000 mm 5,3 UV-I 752 W/m 10,5 C 17,1 C 22,5 km/h (4 Bft)
26.05.2019 11:15 18,1 C 15,6 C 13,9 C 12,8 C 12,2 C 62 % 0 lf 175 cb 95 cb 77 cb 10 cb 1015,3 hPa 0,0 l/m 5,7 km/h (1 Bft) W 281 2 min 0,000 mm 5,2 UV-I 749 W/m 10,7 C 18,1 C 17,7 km/h (3 Bft)
26.05.2019 11:13 18,0 C 15,6 C 13,9 C 12,8 C 12,2 C 64 % 0 lf 175 cb 95 cb 77 cb 10 cb 1015,3 hPa 0,0 l/m 2,2 km/h (1 Bft) W-NW 288 2 min 0,000 mm 5,2 UV-I 745 W/m 11,1 C 18,0 C 6,4 km/h (2 Bft)
26.05.2019 11:11 17,9 C 15,6 C 13,9 C 12,8 C 12,2 C 63 % 0 lf 175 cb 95 cb 77 cb 10 cb 1015,3 hPa 0,0 l/m 5,5 km/h (1 Bft) W-NW 288 2 min 0,000 mm 5,2 UV-I 745 W/m 10,8 C 17,9 C 11,3 km/h (2 Bft)
26.05.2019 11:09 17,9 C 15,6 C 13,9 C 12,8 C 12,2 C 64 % 0 lf 176 cb 95 cb 77 cb 10 cb 1015,3 hPa 0,0 l/m 6,3 km/h (2 Bft) W 271 2 min 0,000 mm 5,1 UV-I 738 W/m 11,0 C 17,9 C 14,5 km/h (3 Bft)
26.05.2019 11:07 17,8 C 15,6 C 13,3 C 12,8 C 12,2 C 63 % 0 lf 176 cb 94 cb 77 cb 10 cb 1015,3 hPa 0,0 l/m 8,0 km/h (2 Bft) W-NW 296 2 min 0,000 mm 5,0 UV-I 737 W/m 10,7 C 17,0 C 17,7 km/h (3 Bft)
26.05.2019 11:05 17,8 C 15,6 C 13,3 C 12,8 C 12,2 C 64 % 0 lf 176 cb 94 cb 77 cb 10 cb 1015,3 hPa 0,0 l/m 7,3 km/h (2 Bft) W 268 2 min 0,000 mm 4,9 UV-I 729 W/m 10,9 C 17,4 C 17,7 km/h (3 Bft)
26.05.2019 11:03 17,8 C 15,6 C 13,3 C 12,8 C 12,2 C 64 % 0 lf 176 cb 94 cb 77 cb 10 cb 1015,4 hPa 0,0 l/m 7,7 km/h (2 Bft) W 275 2 min 0,000 mm 4,9 UV-I 728 W/m 10,9 C 17,2 C 17,7 km/h (3 Bft)
26.05.2019 11:01 17,7 C 15,6 C 13,3 C 12,8 C 12,2 C 66 % 0 lf 176 cb 94 cb 77 cb 10 cb 1015,4 hPa 0,0 l/m 6,5 km/h (2 Bft) SW 236 2 min 0,330 mm 4,8 UV-I 722 W/m 11,3 C 17,7 C 17,7 km/h (3 Bft)
26.05.2019 10:59 17,6 C 15,0 C 13,3 C 12,8 C 12,2 C 65 % 0 lf 174 cb 94 cb 77 cb 10 cb 1015,5 hPa 0,0 l/m 5,9 km/h (2 Bft) W-SW 256 2 min 0,000 mm 4,8 UV-I 722 W/m 10,9 C 17,6 C 11,3 km/h (2 Bft)
26.05.2019 10:57 17,6 C 15,0 C 13,3 C 12,8 C 12,2 C 66 % 0 lf 174 cb 94 cb 77 cb 10 cb 1015,5 hPa 0,0 l/m 3,9 km/h (1 Bft) W 259 2 min 0,000 mm 4,8 UV-I 712 W/m 11,2 C 17,6 C 9,7 km/h (2 Bft)
26.05.2019 10:55 17,5 C 15,0 C 13,3 C 12,8 C 12,2 C 65 % 0 lf 174 cb 94 cb 77 cb 10 cb 1015,5 hPa 0,0 l/m 3,0 km/h (1 Bft) W 259 2 min 0,000 mm 4,7 UV-I 712 W/m 10,8 C 17,5 C 11,3 km/h (2 Bft)
26.05.2019 10:53 17,6 C 15,0 C 13,3 C 12,8 C 12,2 C 65 % 0 lf 174 cb 94 cb 77 cb 10 cb 1015,6 hPa 0,0 l/m 9,4 km/h (2 Bft) W 273 2 min 0,000 mm 4,6 UV-I 705 W/m 10,9 C 16,2 C 16,1 km/h (3 Bft)
26.05.2019 10:51 17,5 C 15,0 C 13,3 C 12,8 C 12,2 C 66 % 0 lf 174 cb 94 cb 77 cb 10 cb 1015,6 hPa 0,0 l/m 7,2 km/h (2 Bft) W 268 2 min 0,000 mm 4,6 UV-I 705 W/m 11,1 C 17,1 C 16,1 km/h (3 Bft)
26.05.2019 10:49 17,4 C 15,0 C 13,3 C 12,8 C 12,2 C 68 % 0 lf 174 cb 94 cb 77 cb 10 cb 1015,6 hPa 0,0 l/m 7,2 km/h (2 Bft) W-SW 237 2 min 0,000 mm 4,5 UV-I 701 W/m 11,4 C 17,0 C 14,5 km/h (3 Bft)
26.05.2019 10:47 17,3 C 15,0 C 13,3 C 12,8 C 12,2 C 65 % 0 lf 174 cb 94 cb 77 cb 10 cb 1015,7 hPa 0,0 l/m 7,2 km/h (2 Bft) SW 216 2 min 0,000 mm 4,4 UV-I 696 W/m 10,7 C 16,9 C 16,1 km/h (3 Bft)
26.05.2019 10:45 17,3 C 15,0 C 13,3 C 12,8 C 12,2 C 67 % 0 lf 174 cb 94 cb 77 cb 10 cb 1015,6 hPa 0,0 l/m 7,7 km/h (2 Bft) W 275 2 min 0,000 mm 4,3 UV-I 687 W/m 11,1 C 16,7 C 16,1 km/h (3 Bft)
26.05.2019 10:43 17,2 C 15,0 C 13,3 C 12,8 C 12,2 C 68 % 0 lf 174 cb 94 cb 77 cb 10 cb 1015,7 hPa 0,0 l/m 9,4 km/h (2 Bft) W-SW 246 2 min 0,000 mm 4,3 UV-I 677 W/m 11,2 C 15,8 C 17,7 km/h (3 Bft)
26.05.2019 10:41 17,1 C 15,0 C 13,9 C 12,8 C 12,2 C 68 % 0 lf 174 cb 95 cb 77 cb 10 cb 1015,6 hPa 0,0 l/m 6,2 km/h (2 Bft) W-SW 240 2 min 0,000 mm 4,2 UV-I 679 W/m 11,1 C 17,1 C 17,7 km/h (3 Bft)
26.05.2019 10:39 17,0 C 15,0 C 13,9 C 12,8 C 12,2 C 69 % 0 lf 174 cb 95 cb 77 cb 10 cb 1015,7 hPa 0,0 l/m 6,6 km/h (2 Bft) W-SW 247 1 min 0,000 mm 4,1 UV-I 675 W/m 11,3 C 16,9 C 11,3 km/h (2 Bft)
26.05.2019 10:38 16,9 C 15,0 C 13,9 C 12,8 C 12,2 C 69 % 0 lf 173 cb 95 cb 77 cb 10 cb 1015,7 hPa 0,0 l/m 1,2 km/h (1 Bft) W-NW 297 2 min 0,000 mm 4,1 UV-I 670 W/m 11,2 C 16,9 C 4,8 km/h (1 Bft)
26.05.2019 10:36 16,8 C 15,0 C 13,9 C 12,8 C 12,2 C 70 % 0 lf 173 cb 95 cb 77 cb 10 cb 1015,7 hPa 0,0 l/m 0,8 km/h (0 Bft) W 275 2 min 0,000 mm 4,0 UV-I 657 W/m 11,3 C 16,8 C 4,8 km/h (1 Bft)
26.05.2019 10:34 16,7 C 15,0 C 13,9 C 12,8 C 12,2 C 69 % 0 lf 173 cb 95 cb 77 cb 10 cb 1015,7 hPa 0,0 l/m 3,2 km/h (1 Bft) W 278 2 min 0,000 mm 4,0 UV-I 650 W/m 11,0 C 16,7 C 8,0 km/h (2 Bft)
26.05.2019 10:32 16,6 C 15,0 C 13,9 C 12,8 C 12,2 C 69 % 0 lf 173 cb 95 cb 77 cb 10 cb 1015,6 hPa 0,0 l/m 6,5 km/h (2 Bft) W-NW 284 2 min 0,000 mm 4,0 UV-I 670 W/m 10,9 C 16,6 C 16,1 km/h (3 Bft)
26.05.2019 10:30 16,6 C 15,0 C 13,9 C 12,8 C 12,2 C 68 % 0 lf 173 cb 95 cb 77 cb 10 cb 1015,7 hPa 0,0 l/m 7,8 km/h (2 Bft) W-NW 288 2 min 0,000 mm 3,8 UV-I 610 W/m 10,7 C 15,9 C 16,1 km/h (3 Bft)
26.05.2019 10:28 16,5 C 15,0 C 13,9 C 12,8 C 12,2 C 70 % 0 lf 173 cb 95 cb 77 cb 10 cb 1015,6 hPa 0,0 l/m 9,5 km/h (2 Bft) W-SW 244 2 min 0,000 mm 3,7 UV-I 610 W/m 11,0 C 15,0 C 20,9 km/h (4 Bft)
26.05.2019 10:26 16,4 C 15,0 C 13,9 C 12,8 C 12,2 C 72 % 0 lf 173 cb 95 cb 77 cb 10 cb 1015,6 hPa 0,0 l/m 6,5 km/h (2 Bft) W 279 2 min 0,000 mm 3,6 UV-I 534 W/m 11,3 C 16,4 C 17,7 km/h (3 Bft)
26.05.2019 10:24 16,3 C 15,6 C 13,9 C 12,8 C 12,2 C 71 % 0 lf 175 cb 95 cb 77 cb 10 cb 1015,6 hPa 0,0 l/m 4,1 km/h (1 Bft) SW 222 2 min 0,000 mm 3,4 UV-I 596 W/m 11,0 C 16,3 C 11,3 km/h (2 Bft)
26.05.2019 10:22 16,1 C 15,6 C 13,9 C 12,8 C 12,2 C 73 % 0 lf 175 cb 95 cb 77 cb 10 cb 1015,7 hPa 0,0 l/m 7,9 km/h (2 Bft) W 269 2 min 0,000 mm 3,7 UV-I 645 W/m 11,3 C 15,3 C 14,5 km/h (3 Bft)
26.05.2019 10:20 16,0 C 15,6 C 13,9 C 12,8 C 12,2 C 73 % 0 lf 175 cb 95 cb 77 cb 10 cb 1015,6 hPa 0,0 l/m 3,9 km/h (1 Bft) SW 225 0 min 0,000 mm 3,5 UV-I 302 W/m 11,2 C 16,0 C 9,7 km/h (2 Bft)
26.05.2019 10:18 15,9 C 15,6 C 13,9 C 12,8 C 12,2 C 72 % 0 lf 173 cb 95 cb 77 cb 10 cb 1015,7 hPa 0,0 l/m 7,5 km/h (2 Bft) W 260 2 min 0,000 mm 3,4 UV-I 483 W/m 10,9 C 15,3 C 16,1 km/h (3 Bft)
26.05.2019 10:16 15,8 C 15,6 C 13,9 C 12,8 C 12,2 C 73 % 0 lf 173 cb 95 cb 77 cb 10 cb 1015,7 hPa 0,0 l/m 7,2 km/h (2 Bft) W-SW 252 2 min 0,000 mm 3,3 UV-I 508 W/m 11,0 C 15,4 C 11,3 km/h (2 Bft)
26.05.2019 10:14 15,8 C 15,6 C 13,9 C 12,8 C 12,2 C 74 % 0 lf 173 cb 95 cb 77 cb 10 cb 1015,7 hPa 0,0 l/m 9,6 km/h (2 Bft) SW 230 2 min 0,000 mm 2,9 UV-I 432 W/m 11,2 C 14,2 C 17,7 km/h (3 Bft)
26.05.2019 10:12 15,7 C 15,6 C 13,9 C 12,8 C 12,2 C 73 % 0 lf 173 cb 95 cb 77 cb 10 cb 1015,7 hPa 0,0 l/m 4,6 km/h (1 Bft) W-SW 246 2 min 0,000 mm 3,0 UV-I 364 W/m 10,9 C 15,7 C 9,7 km/h (2 Bft)
26.05.2019 10:10 15,7 C 15,6 C 13,9 C 12,8 C 12,2 C 72 % 0 lf 173 cb 95 cb 77 cb 10 cb 1015,6 hPa 0,0 l/m 3,5 km/h (1 Bft) W-SW 240 2 min 0,000 mm 2,7 UV-I 399 W/m 10,7 C 15,7 C 9,7 km/h (2 Bft)
26.05.2019 10:08 15,7 C 16,1 C 13,9 C 12,8 C 12,2 C 73 % 0 lf 174 cb 95 cb 77 cb 10 cb 1015,7 hPa 0,0 l/m 7,4 km/h (2 Bft) W 259 2 min 0,000 mm 2,7 UV-I 410 W/m 10,9 C 15,2 C 11,3 km/h (2 Bft)
26.05.2019 10:06 15,6 C 16,1 C 13,9 C 12,8 C 12,2 C 74 % 0 lf 174 cb 95 cb 77 cb 10 cb 1015,7 hPa 0,0 l/m 9,0 km/h (2 Bft) W-SW 241 2 min 0,000 mm 2,3 UV-I 352 W/m 11,0 C 14,2 C 20,9 km/h (4 Bft)
26.05.2019 10:04 15,6 C 16,7 C 13,9 C 12,8 C 12,2 C 75 % 0 lf 176 cb 95 cb 77 cb 10 cb 1015,7 hPa 0,0 l/m 7,7 km/h (2 Bft) S-SW 200 2 min 0,000 mm 2,2 UV-I 424 W/m 11,2 C 14,9 C 17,7 km/h (3 Bft)
26.05.2019 10:02 15,5 C 16,7 C 13,9 C 12,8 C 12,2 C 74 % 0 lf 176 cb 95 cb 77 cb 10 cb 1015,7 hPa 0,0 l/m 9,1 km/h (2 Bft) W 259 2 min 0,000 mm 2,7 UV-I 471 W/m 10,9 C 14,1 C 20,9 km/h (4 Bft)
26.05.2019 10:00 15,4 C 16,7 C 13,9 C 12,8 C 12,2 C 74 % 0 lf 176 cb 95 cb 77 cb 10 cb 1015,7 hPa 0,0 l/m 7,7 km/h (2 Bft) SW 235 0 min 0,178 mm 2,3 UV-I 343 W/m 10,8 C 14,7 C 17,7 km/h (3 Bft)
26.05.2019 09:58 15,3 C 16,7 C 13,9 C 12,8 C 12,2 C 75 % 0 lf 176 cb 95 cb 77 cb 10 cb 1015,8 hPa 0,0 l/m 2,6 km/h (1 Bft) SW 233 0 min 0,000 mm 2,2 UV-I 322 W/m 10,9 C 15,3 C 6,4 km/h (2 Bft)
26.05.2019 09:56 15,3 C 17,2 C 13,9 C 12,8 C 12,2 C 74 % 0 lf 177 cb 95 cb 77 cb 10 cb 1015,7 hPa 0,0 l/m 4,0 km/h (1 Bft) W-SW 252 2 min 0,000 mm 2,4 UV-I 357 W/m 10,7 C 15,3 C 14,5 km/h (3 Bft)
26.05.2019 09:54 15,2 C 17,2 C 13,9 C 12,8 C 12,2 C 74 % 0 lf 178 cb 95 cb 77 cb 10 cb 1015,8 hPa 0,0 l/m 6,3 km/h (2 Bft) W 275 2 min 0,000 mm 2,3 UV-I 373 W/m 10,6 C 15,2 C 16,1 km/h (3 Bft)
26.05.2019 09:52 15,2 C 17,2 C 13,9 C 12,8 C 12,2 C 74 % 0 lf 177 cb 95 cb 77 cb 10 cb 1015,8 hPa 0,0 l/m 8,1 km/h (2 Bft) W 272 2 min 0,000 mm 2,3 UV-I 362 W/m 10,6 C 14,3 C 14,5 km/h (3 Bft)
26.05.2019 09:50 15,2 C 17,2 C 13,9 C 12,8 C 12,2 C 74 % 0 lf 177 cb 95 cb 77 cb 10 cb 1015,8 hPa 0,0 l/m 10,3 km/h (2 Bft) W-SW 243 0 min 0,000 mm 1,7 UV-I 251 W/m 10,6 C 13,2 C 17,7 km/h (3 Bft)
26.05.2019 09:48 15,2 C 17,8 C 13,9 C 12,8 C 12,2 C 74 % 0 lf 178 cb 95 cb 77 cb 10 cb 1015,8 hPa 0,0 l/m 9,2 km/h (2 Bft) W-SW 238 0 min 0,000 mm 1,8 UV-I 255 W/m 10,6 C 13,7 C 16,1 km/h (3 Bft)
26.05.2019 09:46 15,2 C 18,3 C 13,9 C 12,8 C 12,2 C 74 % 0 lf 181 cb 95 cb 77 cb 10 cb 1015,8 hPa 0,0 l/m 10,1 km/h (2 Bft) W-NW 287 0 min 0,000 mm 1,7 UV-I 250 W/m 10,6 C 13,3 C 17,7 km/h (3 Bft)
26.05.2019 09:44 15,2 C 18,3 C 13,9 C 12,8 C 12,2 C 74 % 0 lf 180 cb 95 cb 77 cb 10 cb 1015,7 hPa 0,0 l/m 7,5 km/h (2 Bft) W 270 0 min 0,000 mm 1,7 UV-I 269 W/m 10,6 C 14,6 C 11,3 km/h (2 Bft)
26.05.2019 09:42 15,3 C 18,3 C 13,9 C 12,8 C 12,2 C 74 % 0 lf 180 cb 95 cb 77 cb 10 cb 1015,7 hPa 0,0 l/m 5,0 km/h (1 Bft) SW 234 0 min 0,000 mm 1,6 UV-I 262 W/m 10,7 C 15,3 C 16,1 km/h (3 Bft)
26.05.2019 09:40 15,3 C 18,3 C 13,9 C 12,2 C 12,2 C 72 % 0 lf 179 cb 95 cb 77 cb 10 cb 1015,7 hPa 0,0 l/m 9,1 km/h (2 Bft) SW 221 0 min 0,000 mm 1,7 UV-I 287 W/m 10,3 C 13,9 C 19,3 km/h (3 Bft)
26.05.2019 09:38 15,4 C 18,3 C 13,9 C 12,2 C 12,2 C 72 % 0 lf 179 cb 95 cb 77 cb 10 cb 1015,7 hPa 0,0 l/m 10,9 km/h (2 Bft) W 260 0 min 0,000 mm 1,4 UV-I 251 W/m 10,4 C 13,2 C 17,7 km/h (3 Bft)
26.05.2019 09:36 15,5 C 18,9 C 13,9 C 12,2 C 12,2 C 73 % 0 lf 181 cb 95 cb 77 cb 10 cb 1015,7 hPa 0,0 l/m 7,1 km/h (2 Bft) W-SW 245 0 min 0,000 mm 1,3 UV-I 211 W/m 10,7 C 15,1 C 11,3 km/h (2 Bft)
26.05.2019 09:35 15,6 C 18,9 C 13,9 C 12,2 C 12,2 C 73 % 0 lf 181 cb 95 cb 77 cb 10 cb 1015,7 hPa 0,0 l/m 5,8 km/h (2 Bft) W 271 0 min 0,000 mm 1,3 UV-I 216 W/m 10,8 C 15,6 C 11,3 km/h (2 Bft)
26.05.2019 09:33 15,6 C 19,4 C 13,9 C 12,2 C 12,2 C 72 % 0 lf 182 cb 95 cb 77 cb 10 cb 1015,7 hPa 0,0 l/m 7,9 km/h (2 Bft) W-NW 294 0 min 0,000 mm 1,3 UV-I 237 W/m 10,6 C 14,8 C 17,7 km/h (3 Bft)
26.05.2019 09:31 15,7 C 20,0 C 13,9 C 12,2 C 12,2 C 73 % 0 lf 184 cb 95 cb 77 cb 10 cb 1015,7 hPa 0,0 l/m 9,9 km/h (2 Bft) W 261 0 min 0,000 mm 1,3 UV-I 244 W/m 10,9 C 13,9 C 20,9 km/h (4 Bft)
26.05.2019 09:29 15,7 C 20,6 C 13,9 C 12,2 C 12,2 C 74 % 0 lf 185 cb 95 cb 77 cb 10 cb 1015,7 hPa 0,0 l/m 5,4 km/h (1 Bft) SW 231 0 min 0,000 mm 1,2 UV-I 239 W/m 11,1 C 15,7 C 14,5 km/h (3 Bft)
26.05.2019 09:27 15,6 C 21,1 C 13,9 C 12,2 C 12,2 C 73 % 0 lf 187 cb 95 cb 77 cb 10 cb 1015,8 hPa 0,0 l/m 4,9 km/h (1 Bft) W-SW 243 0 min 0,000 mm 1,2 UV-I 301 W/m 10,8 C 15,6 C 16,1 km/h (3 Bft)
26.05.2019 09:25 15,6 C 22,2 C 13,9 C 12,2 C 12,2 C 73 % 0 lf 192 cb 95 cb 76 cb 10 cb 1015,7 hPa 0,0 l/m 8,4 km/h (2 Bft) W 262 0 min 0,000 mm 1,4 UV-I 295 W/m 10,8 C 14,5 C 16,1 km/h (3 Bft)
26.05.2019 09:23 15,5 C 22,2 C 13,3 C 12,2 C 12,2 C 74 % 0 lf 192 cb 94 cb 77 cb 10 cb 1015,6 hPa 0,0 l/m 8,6 km/h (2 Bft) W-NW 293 2 min 0,000 mm 1,7 UV-I 454 W/m 10,9 C 14,3 C 17,7 km/h (3 Bft)
26.05.2019 09:21 15,4 C 21,7 C 13,3 C 12,2 C 12,2 C 74 % 0 lf 190 cb 95 cb 77 cb 10 cb 1015,7 hPa 0,0 l/m 7,6 km/h (2 Bft) W 269 2 min 0,000 mm 2,0 UV-I 513 W/m 10,8 C 14,7 C 14,5 km/h (3 Bft)
26.05.2019 09:19 15,4 C 20,0 C 13,3 C 12,2 C 12,2 C 74 % 0 lf 185 cb 95 cb 77 cb 10 cb 1015,6 hPa 0,0 l/m 9,7 km/h (2 Bft) W 269 2 min 0,000 mm 2,0 UV-I 512 W/m 10,8 C 13,7 C 20,9 km/h (4 Bft)
26.05.2019 09:17 15,3 C 18,9 C 13,3 C 12,2 C 12,2 C 75 % 0 lf 183 cb 95 cb 77 cb 10 cb 1015,7 hPa 0,0 l/m 6,3 km/h (2 Bft) W-SW 238 2 min 0,000 mm 1,9 UV-I 471 W/m 10,9 C 15,3 C 17,7 km/h (3 Bft)
26.05.2019 09:15 15,3 C 18,3 C 13,3 C 12,2 C 12,2 C 75 % 0 lf 181 cb 95 cb 76 cb 10 cb 1015,6 hPa 0,0 l/m 8,2 km/h (2 Bft) SW 232 2 min 0,000 mm 1,7 UV-I 413 W/m 10,9 C 14,3 C 19,3 km/h (3 Bft)
26.05.2019 09:13 15,3 C 17,2 C 12,8 C 12,2 C 12,2 C 76 % 0 lf 178 cb 94 cb 77 cb 10 cb 1015,7 hPa 0,0 l/m 4,0 km/h (1 Bft) SW 229 2 min 0,000 mm 1,7 UV-I 432 W/m 11,1 C 15,3 C 14,5 km/h (3 Bft)
26.05.2019 09:11 15,2 C 16,7 C 12,8 C 12,2 C 12,2 C 77 % 0 lf 177 cb 94 cb 76 cb 10 cb 1015,7 hPa 0,0 l/m 1,9 km/h (1 Bft) W 260 2 min 0,000 mm 1,6 UV-I 392 W/m 11,2 C 15,2 C 6,4 km/h (2 Bft)
26.05.2019 09:09 15,2 C 15,6 C 12,8 C 12,2 C 12,2 C 77 % 0 lf 175 cb 94 cb 77 cb 10 cb 1015,7 hPa 0,0 l/m 2,0 km/h (1 Bft) W-SW 250 2 min 0,000 mm 1,5 UV-I 385 W/m 11,2 C 15,2 C 9,7 km/h (2 Bft)
26.05.2019 09:07 15,1 C 14,4 C 12,8 C 12,2 C 12,2 C 76 % 0 lf 171 cb 94 cb 76 cb 10 cb 1015,7 hPa 0,0 l/m 3,7 km/h (1 Bft) W-SW 256 0 min 0,000 mm 1,2 UV-I 237 W/m 10,9 C 15,1 C 9,7 km/h (2 Bft)
26.05.2019 09:05 15,0 C 14,4 C 12,8 C 12,2 C 12,2 C 76 % 0 lf 171 cb 95 cb 76 cb 10 cb 1015,7 hPa 0,0 l/m 4,9 km/h (1 Bft) SW 236 0 min 0,000 mm 1,1 UV-I 239 W/m 10,8 C 15,0 C 11,3 km/h (2 Bft)
26.05.2019 09:03 15,0 C 14,4 C 12,8 C 12,2 C 12,2 C 78 % 0 lf 172 cb 95 cb 76 cb 10 cb 1015,7 hPa 0,0 l/m 2,4 km/h (1 Bft) SW 221 0 min 0,000 mm 1,0 UV-I 237 W/m 11,2 C 15,0 C 11,3 km/h (2 Bft)
26.05.2019 09:01 15,0 C 14,4 C 12,2 C 12,2 C 12,2 C 77 % 0 lf 172 cb 94 cb 76 cb 10 cb 1015,7 hPa 0,0 l/m 3,0 km/h (1 Bft) W-SW 248 2 min 0,152 mm 1,2 UV-I 274 W/m 11,0 C 15,0 C 9,7 km/h (2 Bft)
26.05.2019 08:59 15,0 C 13,9 C 12,2 C 12,2 C 12,2 C 79 % 0 lf 170 cb 94 cb 76 cb 10 cb 1015,7 hPa 0,0 l/m 3,8 km/h (1 Bft) W-NW 287 2 min 0,000 mm 1,1 UV-I 279 W/m 11,4 C 15,0 C 16,1 km/h (3 Bft)
26.05.2019 08:57 14,8 C 13,9 C 12,2 C 12,2 C 12,2 C 77 % 0 lf 171 cb 94 cb 76 cb 10 cb 1015,7 hPa 0,0 l/m 5,3 km/h (1 Bft) W 265 2 min 0,000 mm 1,2 UV-I 343 W/m 10,8 C 14,8 C 16,1 km/h (3 Bft)
26.05.2019 08:55 14,7 C 13,9 C 12,2 C 12,2 C 12,2 C 77 % 0 lf 172 cb 94 cb 76 cb 10 cb 1015,7 hPa 0,0 l/m 4,1 km/h (1 Bft) W-SW 254 2 min 0,000 mm 1,2 UV-I 343 W/m 10,7 C 14,7 C 14,5 km/h (3 Bft)
26.05.2019 08:53 14,6 C 13,9 C 12,2 C 12,2 C 11,7 C 77 % 0 lf 173 cb 94 cb 76 cb 9 cb 1015,6 hPa 0,0 l/m 5,9 km/h (2 Bft) W-SW 253 2 min 0,000 mm 1,2 UV-I 306 W/m 10,6 C 14,6 C 11,3 km/h (2 Bft)
26.05.2019 08:51 14,4 C 13,3 C 11,7 C 11,7 C 11,7 C 77 % 0 lf 173 cb 94 cb 76 cb 9 cb 1015,7 hPa 0,0 l/m 3,5 km/h (1 Bft) W-SW 256 2 min 0,000 mm 1,2 UV-I 323 W/m 10,4 C 14,4 C 9,7 km/h (2 Bft)
26.05.2019 08:49 14,4 C 13,3 C 11,7 C 11,7 C 11,7 C 76 % 0 lf 173 cb 94 cb 76 cb 9 cb 1015,6 hPa 0,0 l/m 10,3 km/h (2 Bft) W-NW 299 2 min 0,000 mm 1,2 UV-I 323 W/m 10,2 C 12,3 C 24,1 km/h (4 Bft)
26.05.2019 08:47 14,3 C 13,3 C 11,7 C 11,7 C 11,7 C 78 % 0 lf 174 cb 94 cb 76 cb 9 cb 1015,7 hPa 0,0 l/m 8,5 km/h (2 Bft) W 275 2 min 0,000 mm 1,2 UV-I 353 W/m 10,5 C 13,1 C 19,3 km/h (3 Bft)
26.05.2019 08:45 14,2 C 13,3 C 11,7 C 11,7 C 11,7 C 78 % 0 lf 175 cb 94 cb 76 cb 9 cb 1015,6 hPa 0,0 l/m 4,6 km/h (1 Bft) SW 235 2 min 0,000 mm 1,1 UV-I 330 W/m 10,4 C 14,2 C 11,3 km/h (2 Bft)
26.05.2019 08:43 14,1 C 12,8 C 11,7 C 11,7 C 11,7 C 78 % 0 lf 173 cb 94 cb 75 cb 9 cb 1015,6 hPa 0,0 l/m 7,2 km/h (2 Bft) W-SW 246 2 min 0,000 mm 1,0 UV-I 318 W/m 10,3 C 13,6 C 14,5 km/h (3 Bft)
26.05.2019 08:41 14,1 C 12,8 C 11,7 C 11,7 C 11,7 C 80 % 0 lf 173 cb 94 cb 75 cb 9 cb 1015,6 hPa 0,0 l/m 7,6 km/h (2 Bft) W-SW 252 2 min 0,000 mm 0,9 UV-I 272 W/m 10,7 C 13,4 C 16,1 km/h (3 Bft)
26.05.2019 08:39 13,9 C 12,8 C 11,7 C 11,7 C 11,7 C 80 % 0 lf 174 cb 94 cb 75 cb 9 cb 1015,6 hPa 0,0 l/m 4,4 km/h (1 Bft) W 266 2 min 0,000 mm 0,9 UV-I 299 W/m 10,5 C 13,9 C 11,3 km/h (2 Bft)
26.05.2019 08:37 13,8 C 12,8 C 11,7 C 11,7 C 11,7 C 80 % 0 lf 174 cb 94 cb 75 cb 9 cb 1015,6 hPa 0,0 l/m 6,0 km/h (2 Bft) W 263 2 min 0,000 mm 0,9 UV-I 287 W/m 10,4 C 13,8 C 14,5 km/h (3 Bft)
26.05.2019 08:35 13,7 C 12,2 C 11,7 C 11,7 C 11,7 C 81 % 0 lf 172 cb 94 cb 75 cb 9 cb 1015,6 hPa 0,0 l/m 7,1 km/h (2 Bft) SW 226 2 min 0,000 mm 0,8 UV-I 264 W/m 10,5 C 13,3 C 16,1 km/h (3 Bft)
26.05.2019 08:33 13,6 C 12,2 C 11,7 C 11,7 C 11,7 C 81 % 0 lf 173 cb 94 cb 75 cb 9 cb 1015,6 hPa 0,0 l/m 5,0 km/h (1 Bft) W-SW 242 2 min 0,000 mm 0,8 UV-I 294 W/m 10,4 C 13,6 C 16,1 km/h (3 Bft)
26.05.2019 08:31 13,5 C 12,2 C 11,7 C 11,7 C 11,7 C 81 % 0 lf 173 cb 94 cb 75 cb 9 cb 1015,6 hPa 0,0 l/m 2,6 km/h (1 Bft) W-SW 248 2 min 0,000 mm 0,8 UV-I 294 W/m 10,3 C 13,5 C 9,7 km/h (2 Bft)
26.05.2019 08:29 13,4 C 12,2 C 11,1 C 11,7 C 11,7 C 82 % 0 lf 175 cb 93 cb 75 cb 9 cb 1015,6 hPa 0,0 l/m 3,2 km/h (1 Bft) W-SW 244 2 min 0,000 mm 0,7 UV-I 283 W/m 10,4 C 13,4 C 11,3 km/h (2 Bft)
26.05.2019 08:27 13,3 C 11,7 C 11,1 C 11,7 C 11,7 C 82 % 0 lf 173 cb 93 cb 75 cb 9 cb 1015,6 hPa 0,0 l/m 8,6 km/h (2 Bft) SW 220 2 min 0,000 mm 0,7 UV-I 274 W/m 10,3 C 12,0 C 17,7 km/h (3 Bft)
26.05.2019 08:25 13,2 C 11,7 C 11,1 C 11,7 C 11,7 C 82 % 0 lf 174 cb 93 cb 75 cb 9 cb 1015,6 hPa 0,0 l/m 6,8 km/h (2 Bft) W-SW 252 2 min 0,000 mm 0,6 UV-I 244 W/m 10,2 C 13,0 C 16,1 km/h (3 Bft)
26.05.2019 08:23 13,1 C 11,7 C 11,1 C 11,7 C 11,7 C 82 % 0 lf 174 cb 93 cb 75 cb 9 cb 1015,6 hPa 0,0 l/m 5,1 km/h (1 Bft) W-SW 246 2 min 0,000 mm 0,6 UV-I 246 W/m 10,1 C 13,1 C 17,7 km/h (3 Bft)
26.05.2019 08:21 12,9 C 11,7 C 11,1 C 11,7 C 11,7 C 83 % 0 lf 174 cb 93 cb 75 cb 9 cb 1015,6 hPa 0,0 l/m 4,6 km/h (1 Bft) W 271 2 min 0,000 mm 0,6 UV-I 237 W/m 10,1 C 12,9 C 14,5 km/h (3 Bft)
26.05.2019 08:19 12,8 C 11,1 C 11,1 C 11,7 C 11,7 C 84 % 0 lf 172 cb 93 cb 75 cb 9 cb 1015,7 hPa 0,0 l/m 5,6 km/h (1 Bft) SW 224 2 min 0,000 mm 0,5 UV-I 234 W/m 10,2 C 12,8 C 12,9 km/h (3 Bft)
26.05.2019 08:17 12,7 C 11,1 C 11,1 C 11,7 C 12,2 C 83 % 0 lf 173 cb 93 cb 75 cb 10 cb 1015,8 hPa 0,0 l/m 3,2 km/h (1 Bft) SW 236 2 min 0,000 mm 0,5 UV-I 241 W/m 9,9 C 12,7 C 8,0 km/h (2 Bft)
26.05.2019 08:15 12,7 C 11,1 C 11,1 C 11,7 C 12,2 C 83 % 0 lf 173 cb 93 cb 75 cb 10 cb 1015,7 hPa 0,0 l/m 0,9 km/h (0 Bft) W-SW 238 2 min 0,000 mm 0,5 UV-I 232 W/m 9,9 C 12,7 C 4,8 km/h (1 Bft)
26.05.2019 08:13 12,6 C 11,1 C 11,1 C 11,7 C 12,2 C 84 % 0 lf 174 cb 93 cb 75 cb 10 cb 1015,8 hPa 0,0 l/m 3,9 km/h (1 Bft) W-SW 238 0 min 0,000 mm 0,0 UV-I 202 W/m 10,0 C 12,6 C 11,3 km/h (2 Bft)
26.05.2019 08:11 12,4 C 11,1 C 11,1 C 11,7 C 12,2 C 84 % 0 lf 174 cb 93 cb 74 cb 10 cb 1015,8 hPa 0,0 l/m 5,5 km/h (1 Bft) W-SW 246 0 min 0,000 mm 0,0 UV-I 185 W/m 9,8 C 12,4 C 12,9 km/h (3 Bft)
26.05.2019 08:09 12,3 C 10,6 C 11,1 C 11,7 C 12,2 C 85 % 0 lf 173 cb 93 cb 74 cb 10 cb 1015,8 hPa 0,0 l/m 2,7 km/h (1 Bft) W 277 0 min 0,000 mm 0,0 UV-I 148 W/m 9,9 C 12,3 C 8,0 km/h (2 Bft)
26.05.2019 08:07 12,2 C 10,6 C 11,1 C 11,7 C 12,2 C 85 % 0 lf 173 cb 93 cb 74 cb 10 cb 1015,8 hPa 0,0 l/m 4,4 km/h (1 Bft) W-NW 282 0 min 0,000 mm 0,0 UV-I 162 W/m 9,8 C 12,2 C 11,3 km/h (2 Bft)
26.05.2019 08:05 12,2 C 10,6 C 11,1 C 11,7 C 12,2 C 85 % 0 lf 173 cb 93 cb 74 cb 10 cb 1015,9 hPa 0,0 l/m 4,6 km/h (1 Bft) W-SW 242 0 min 0,000 mm 0,0 UV-I 172 W/m 9,8 C 12,2 C 14,5 km/h (3 Bft)
26.05.2019 08:03 12,1 C 10,6 C 11,1 C 11,7 C 12,2 C 85 % 0 lf 173 cb 93 cb 74 cb 10 cb 1016,0 hPa 0,0 l/m 3,2 km/h (1 Bft) W-SW 252 0 min 0,000 mm 0,0 UV-I 156 W/m 9,7 C 12,1 C 8,0 km/h (2 Bft)
26.05.2019 08:01 12,0 C 10,6 C 11,1 C 11,7 C 12,2 C 85 % 0 lf 174 cb 93 cb 74 cb 10 cb 1015,9 hPa 0,0 l/m 0,9 km/h (0 Bft) SW 230 0 min 0,077 mm 0,0 UV-I 142 W/m 9,6 C 12,0 C 4,8 km/h (1 Bft)
26.05.2019 07:59 11,9 C 10,6 C 11,1 C 11,7 C 12,2 C 85 % 0 lf 173 cb 93 cb 74 cb 10 cb 1015,9 hPa 0,0 l/m 2,6 km/h (1 Bft) SW 234 0 min 0,000 mm 0,0 UV-I 137 W/m 9,5 C 11,9 C 11,3 km/h (2 Bft)
26.05.2019 07:57 11,9 C 10,6 C 11,1 C 11,7 C 12,2 C 85 % 0 lf 174 cb 93 cb 74 cb 10 cb 1016,0 hPa 0,0 l/m 0,8 km/h (0 Bft) S-SW 207 0 min 0,000 mm 0,0 UV-I 114 W/m 9,5 C 11,9 C 4,8 km/h (1 Bft)
26.05.2019 07:55 11,9 C 10,6 C 11,1 C 11,7 C 12,2 C 85 % 0 lf 174 cb 93 cb 74 cb 10 cb 1015,9 hPa 0,0 l/m 0,2 km/h (0 Bft) S-SW 207 0 min 0,000 mm 0,0 UV-I 120 W/m 9,5 C 11,9 C 3,2 km/h (1 Bft)
26.05.2019 07:53 11,8 C 10,6 C 11,1 C 11,7 C 12,2 C 85 % 0 lf 174 cb 93 cb 74 cb 10 cb 1015,9 hPa 0,0 l/m 0,4 km/h (0 Bft) S-SW 207 0 min 0,000 mm 0,0 UV-I 135 W/m 9,4 C 11,8 C 4,8 km/h (1 Bft)
26.05.2019 07:51 11,8 C 10,6 C 11,1 C 11,7 C 12,2 C 85 % 0 lf 174 cb 93 cb 74 cb 10 cb 1015,8 hPa 0,0 l/m 0,6 km/h (0 Bft) S-SW 207 0 min 0,000 mm 0,0 UV-I 128 W/m 9,4 C 11,8 C 4,8 km/h (1 Bft)
26.05.2019 07:49 11,8 C 10,6 C 11,1 C 11,7 C 12,2 C 85 % 0 lf 174 cb 93 cb 74 cb 9 cb 1015,9 hPa 0,0 l/m 0,7 km/h (0 Bft) S-SW 207 0 min 0,000 mm 0,0 UV-I 142 W/m 9,4 C 11,8 C 4,8 km/h (1 Bft)
26.05.2019 07:47 11,7 C 10,6 C 11,1 C 11,7 C 12,2 C 85 % 0 lf 174 cb 94 cb 74 cb 9 cb 1015,9 hPa 0,0 l/m 3,0 km/h (1 Bft) S-SW 206 0 min 0,000 mm 0,0 UV-I 162 W/m 9,3 C 11,7 C 6,4 km/h (2 Bft)
26.05.2019 07:45 11,6 C 10,6 C 11,1 C 11,7 C 12,2 C 85 % 0 lf 174 cb 94 cb 74 cb 10 cb 1016,0 hPa 0,0 l/m 0,0 km/h (0 Bft) S-SW 212 2 min 0,000 mm 0,0 UV-I 179 W/m 9,2 C 11,6 C 1,6 km/h (1 Bft)
26.05.2019 07:43 11,6 C 10,6 C 11,1 C 11,7 C 12,2 C 85 % 0 lf 175 cb 94 cb 74 cb 10 cb 1015,9 hPa 0,0 l/m 0,2 km/h (0 Bft) S-SW 212 2 min 0,000 mm 0,0 UV-I 193 W/m 9,2 C 11,6 C 3,2 km/h (1 Bft)
26.05.2019 07:41 11,6 C 10,0 C 11,1 C 11,7 C 12,2 C 85 % 0 lf 173 cb 94 cb 74 cb 10 cb 1016,0 hPa 0,0 l/m 1,4 km/h (1 Bft) S-SW 212 0 min 0,000 mm 0,0 UV-I 151 W/m 9,2 C 11,6 C 4,8 km/h (1 Bft)
26.05.2019 07:39 11,5 C 10,0 C 11,1 C 11,7 C 12,2 C 85 % 0 lf 173 cb 94 cb 74 cb 10 cb 1016,0 hPa 0,0 l/m 0,5 km/h (0 Bft) S-SW 213 0 min 0,000 mm 0,0 UV-I 142 W/m 9,1 C 11,5 C 3,2 km/h (1 Bft)
26.05.2019 07:37 11,4 C 10,0 C 11,1 C 11,7 C 12,2 C 86 % 0 lf 173 cb 94 cb 74 cb 10 cb 1015,9 hPa 0,0 l/m 3,3 km/h (1 Bft) S-SW 213 0 min 0,000 mm 0,0 UV-I 123 W/m 9,1 C 11,4 C 9,7 km/h (2 Bft)
26.05.2019 07:35 11,3 C 10,0 C 11,1 C 11,7 C 12,2 C 86 % 0 lf 173 cb 94 cb 74 cb 9 cb 1015,9 hPa 0,0 l/m 1,6 km/h (1 Bft) W-SW 244 0 min 0,000 mm 0,0 UV-I 137 W/m 9,0 C 11,3 C 4,8 km/h (1 Bft)
26.05.2019 07:33 11,2 C 10,0 C 11,1 C 11,7 C 12,2 C 86 % 0 lf 173 cb 94 cb 74 cb 9 cb 1015,9 hPa 0,0 l/m 0,0 km/h (0 Bft) W-SW 250 2 min 0,000 mm 0,0 UV-I 181 W/m 8,9 C 11,2 C 0,0 km/h (0 Bft)
26.05.2019 07:31 11,2 C 10,0 C 10,6 C 11,7 C 12,2 C 86 % 0 lf 174 cb 93 cb 74 cb 9 cb 1015,9 hPa 0,0 l/m 0,0 km/h (0 Bft) W-SW 250 2 min 0,000 mm 0,0 UV-I 186 W/m 8,9 C 11,2 C 0,0 km/h (0 Bft)
26.05.2019 07:29 11,1 C 10,0 C 10,6 C 11,7 C 12,2 C 86 % 0 lf 174 cb 93 cb 74 cb 9 cb 1015,9 hPa 0,0 l/m 0,0 km/h (0 Bft) W-SW 250 2 min 0,000 mm 0,0 UV-I 162 W/m 8,8 C 11,1 C 0,0 km/h (0 Bft)
26.05.2019 07:27 11,1 C 10,0 C 10,6 C 11,7 C 12,2 C 86 % 0 lf 174 cb 93 cb 74 cb 9 cb 1015,9 hPa 0,0 l/m 0,0 km/h (0 Bft) W-SW 250 1 min 0,000 mm 0,0 UV-I 179 W/m 8,8 C 11,1 C 0,0 km/h (0 Bft)
26.05.2019 07:26 11,0 C 10,0 C 10,6 C 11,7 C 12,2 C 86 % 0 lf 174 cb 93 cb 73 cb 10 cb 1015,9 hPa 0,0 l/m 0,1 km/h (0 Bft) W-SW 250 1 min 0,000 mm 0,0 UV-I 199 W/m 8,7 C 11,0 C 1,6 km/h (1 Bft)
26.05.2019 07:25 11,0 C 10,0 C 10,6 C 11,7 C 12,2 C 86 % 0 lf 174 cb 93 cb 73 cb 9 cb 1015,9 hPa 0,0 l/m 0,6 km/h (0 Bft) W-SW 250 2 min 0,000 mm 0,0 UV-I 190 W/m 8,7 C 11,0 C 4,8 km/h (1 Bft)
26.05.2019 07:23 10,9 C 9,4 C 10,6 C 11,7 C 12,2 C 86 % 0 lf 174 cb 93 cb 73 cb 9 cb 1016,0 hPa 0,0 l/m 0,1 km/h (0 Bft) W-SW 251 2 min 0,000 mm 0,0 UV-I 192 W/m 8,7 C 10,9 C 3,2 km/h (1 Bft)
26.05.2019 07:21 10,9 C 9,4 C 10,6 C 11,7 C 12,2 C 86 % 0 lf 174 cb 93 cb 73 cb 9 cb 1016,0 hPa 0,0 l/m 0,0 km/h (0 Bft) W-SW 251 2 min 0,000 mm 0,0 UV-I 171 W/m 8,7 C 10,9 C 0,0 km/h (0 Bft)
26.05.2019 07:19 10,9 C 9,4 C 10,6 C 11,7 C 12,2 C 86 % 0 lf 174 cb 93 cb 73 cb 9 cb 1016,0 hPa 0,0 l/m 0,0 km/h (0 Bft) W-SW 251 2 min 0,000 mm 0,0 UV-I 163 W/m 8,7 C 10,9 C 0,0 km/h (0 Bft)
26.05.2019 07:17 10,9 C 9,4 C 10,6 C 11,7 C 12,2 C 86 % 0 lf 174 cb 93 cb 73 cb 9 cb 1016,0 hPa 0,0 l/m 0,0 km/h (0 Bft) W-SW 251 0 min 0,000 mm 0,0 UV-I 125 W/m 8,7 C 10,9 C 1,6 km/h (1 Bft)
26.05.2019 07:15 10,9 C 9,4 C 10,6 C 11,7 C 12,2 C 86 % 0 lf 174 cb 93 cb 73 cb 9 cb 1016,1 hPa 0,0 l/m 0,0 km/h (0 Bft) W-SW 251 0 min 0,000 mm 0,0 UV-I 125 W/m 8,7 C 10,9 C 0,0 km/h (0 Bft)
26.05.2019 07:13 10,9 C 9,4 C 10,6 C 11,7 C 12,2 C 86 % 0 lf 175 cb 93 cb 73 cb 9 cb 1016,0 hPa 0,0 l/m 0,0 km/h (0 Bft) W-SW 251 2 min 0,000 mm 0,0 UV-I 127 W/m 8,7 C 10,9 C 0,0 km/h (0 Bft)
26.05.2019 07:11 10,8 C 9,4 C 10,6 C 11,7 C 12,2 C 86 % 0 lf 174 cb 93 cb 73 cb 9 cb 1016,0 hPa 0,0 l/m 0,3 km/h (0 Bft) W-SW 251 0 min 0,000 mm 0,0 UV-I 104 W/m 8,6 C 10,8 C 3,2 km/h (1 Bft)
26.05.2019 07:09 10,8 C 9,4 C 10,6 C 11,7 C 12,2 C 86 % 0 lf 175 cb 93 cb 73 cb 9 cb 1016,1 hPa 0,0 l/m 2,3 km/h (1 Bft) W-SW 251 0 min 0,000 mm 0,0 UV-I 97 W/m 8,6 C 10,8 C 9,7 km/h (2 Bft)
26.05.2019 07:07 10,8 C 9,4 C 10,6 C 11,7 C 12,2 C 86 % 0 lf 175 cb 93 cb 73 cb 9 cb 1016,1 hPa 0,0 l/m 0,0 km/h (0 Bft) W-SW 257 0 min 0,000 mm 0,0 UV-I 91 W/m 8,6 C 10,8 C 0,0 km/h (0 Bft)
26.05.2019 07:05 10,8 C 9,4 C 10,6 C 11,7 C 12,2 C 86 % 0 lf 175 cb 93 cb 73 cb 9 cb 1016,2 hPa 0,0 l/m 0,0 km/h (0 Bft) W-SW 257 0 min 0,000 mm 0,0 UV-I 86 W/m 8,6 C 10,8 C 0,0 km/h (0 Bft)
26.05.2019 07:03 10,7 C 9,4 C 10,6 C 11,7 C 12,2 C 86 % 0 lf 175 cb 93 cb 73 cb 9 cb 1016,1 hPa 0,0 l/m 3,0 km/h (1 Bft) W-SW 257 0 min 0,000 mm 0,0 UV-I 88 W/m 8,5 C 10,7 C 6,4 km/h (2 Bft)
26.05.2019 07:01 10,7 C 8,9 C 10,6 C 11,7 C 12,2 C 87 % 0 lf 174 cb 93 cb 73 cb 9 cb 1016,2 hPa 0,0 l/m 1,3 km/h (1 Bft) W-SW 257 0 min 0,025 mm 0,0 UV-I 74 W/m 8,6 C 10,7 C 11,3 km/h (2 Bft)
26.05.2019 06:59 10,6 C 8,9 C 10,6 C 11,7 C 12,2 C 87 % 0 lf 174 cb 93 cb 73 cb 9 cb 1016,2 hPa 0,0 l/m 2,0 km/h (1 Bft) W 264 0 min 0,000 mm 0,0 UV-I 72 W/m 8,5 C 10,6 C 8,0 km/h (2 Bft)
26.05.2019 06:57 10,5 C 8,9 C 10,6 C 11,7 C 12,2 C 87 % 0 lf 174 cb 93 cb 73 cb 9 cb 1016,1 hPa 0,0 l/m 4,7 km/h (1 Bft) W 264 0 min 0,000 mm 0,0 UV-I 70 W/m 8,4 C 10,5 C 8,0 km/h (2 Bft)
26.05.2019 06:55 10,4 C 8,9 C 10,6 C 11,7 C 12,2 C 87 % 1 lf 174 cb 93 cb 73 cb 9 cb 1016,3 hPa 0,0 l/m 2,1 km/h (1 Bft) W 267 0 min 0,000 mm 0,0 UV-I 67 W/m 8,3 C 10,4 C 9,7 km/h (2 Bft)
26.05.2019 06:53 10,3 C 8,9 C 10,6 C 11,7 C 12,2 C 87 % 1 lf 175 cb 93 cb 73 cb 9 cb 1016,3 hPa 0,0 l/m 2,8 km/h (1 Bft) W 266 0 min 0,000 mm 0,0 UV-I 63 W/m 8,2 C 10,3 C 8,0 km/h (2 Bft)
26.05.2019 06:51 10,2 C 8,9 C 10,6 C 11,7 C 12,2 C 87 % 1 lf 175 cb 93 cb 72 cb 9 cb 1016,3 hPa 0,0 l/m 1,6 km/h (1 Bft) W 269 0 min 0,000 mm 0,0 UV-I 60 W/m 8,1 C 10,2 C 3,2 km/h (1 Bft)
26.05.2019 06:49 10,2 C 8,9 C 10,6 C 11,7 C 12,2 C 87 % 1 lf 175 cb 93 cb 72 cb 9 cb 1016,3 hPa 0,0 l/m 2,1 km/h (1 Bft) W 269 0 min 0,000 mm 0,0 UV-I 56 W/m 8,1 C 10,2 C 9,7 km/h (2 Bft)
26.05.2019 06:47 10,1 C 8,3 C 10,6 C 11,7 C 12,2 C 88 % 2 lf 174 cb 93 cb 72 cb 9 cb 1016,3 hPa 0,0 l/m 3,0 km/h (1 Bft) W 265 0 min 0,000 mm 0,0 UV-I 54 W/m 8,2 C 10,1 C 11,3 km/h (2 Bft)
26.05.2019 06:45 10,1 C 8,3 C 10,6 C 11,7 C 12,2 C 88 % 2 lf 175 cb 93 cb 72 cb 9 cb 1016,3 hPa 0,0 l/m 2,3 km/h (1 Bft) W 265 0 min 0,000 mm 0,0 UV-I 54 W/m 8,2 C 10,1 C 9,7 km/h (2 Bft)
26.05.2019 06:43 9,9 C 8,3 C 10,6 C 11,7 C 12,2 C 88 % 3 lf 175 cb 93 cb 72 cb 9 cb 1016,3 hPa 0,0 l/m 1,8 km/h (1 Bft) W 268 0 min 0,000 mm 0,0 UV-I 58 W/m 8,0 C 9,9 C 4,8 km/h (1 Bft)
26.05.2019 06:41 9,9 C 8,3 C 10,0 C 11,7 C 12,2 C 88 % 3 lf 175 cb 93 cb 72 cb 9 cb 1016,3 hPa 0,0 l/m 2,2 km/h (1 Bft) W 268 0 min 0,000 mm 0,0 UV-I 51 W/m 8,0 C 9,9 C 9,7 km/h (2 Bft)
26.05.2019 06:39 9,9 C 7,8 C 10,0 C 11,7 C 12,2 C 88 % 3 lf 174 cb 93 cb 72 cb 9 cb 1016,3 hPa 0,0 l/m 0,3 km/h (0 Bft) W 269 0 min 0,000 mm 0,0 UV-I 46 W/m 8,0 C 9,9 C 3,2 km/h (1 Bft)
26.05.2019 06:37 9,8 C 7,8 C 10,0 C 11,7 C 12,2 C 88 % 3 lf 174 cb 93 cb 72 cb 9 cb 1016,3 hPa 0,0 l/m 1,0 km/h (0 Bft) W 269 0 min 0,000 mm 0,0 UV-I 46 W/m 7,9 C 9,8 C 6,4 km/h (2 Bft)
26.05.2019 06:35 9,8 C 7,8 C 10,0 C 11,7 C 12,2 C 88 % 4 lf 174 cb 93 cb 72 cb 9 cb 1016,3 hPa 0,0 l/m 1,8 km/h (1 Bft) W 269 0 min 0,000 mm 0,0 UV-I 47 W/m 7,9 C 9,8 C 4,8 km/h (1 Bft)
26.05.2019 06:33 9,8 C 7,8 C 10,0 C 11,7 C 12,2 C 88 % 4 lf 174 cb 93 cb 72 cb 9 cb 1016,3 hPa 0,0 l/m 0,9 km/h (0 Bft) W 269 0 min 0,000 mm 0,0 UV-I 46 W/m 7,9 C 9,8 C 6,4 km/h (2 Bft)
26.05.2019 06:31 9,7 C 7,8 C 10,0 C 11,7 C 12,2 C 88 % 5 lf 175 cb 93 cb 72 cb 9 cb 1016,3 hPa 0,0 l/m 0,0 km/h (0 Bft) W 269 0 min 0,000 mm 0,0 UV-I 44 W/m 7,8 C 9,7 C 0,0 km/h (0 Bft)
26.05.2019 06:29 9,7 C 7,2 C 10,0 C 11,7 C 12,2 C 87 % 6 lf 174 cb 93 cb 72 cb 9 cb 1016,3 hPa 0,0 l/m 0,1 km/h (0 Bft) W 269 0 min 0,000 mm 0,0 UV-I 39 W/m 7,6 C 9,7 C 1,6 km/h (1 Bft)
26.05.2019 06:27 9,7 C 7,2 C 10,0 C 11,7 C 12,2 C 87 % 7 lf 174 cb 93 cb 72 cb 9 cb 1016,3 hPa 0,0 l/m 1,6 km/h (1 Bft) W 269 0 min 0,000 mm 0,0 UV-I 35 W/m 7,6 C 9,7 C 4,8 km/h (1 Bft)
26.05.2019 06:25 9,7 C 7,2 C 10,0 C 11,7 C 12,2 C 88 % 9 lf 174 cb 93 cb 72 cb 9 cb 1016,3 hPa 0,0 l/m 2,6 km/h (1 Bft) W 269 0 min 0,000 mm 0,0 UV-I 33 W/m 7,8 C 9,7 C 6,4 km/h (2 Bft)
26.05.2019 06:23 9,7 C 7,2 C 10,0 C 11,7 C 12,2 C 88 % 11 lf 174 cb 93 cb 72 cb 9 cb 1016,3 hPa 0,0 l/m 1,2 km/h (1 Bft) W 269 0 min 0,000 mm 0,0 UV-I 32 W/m 7,8 C 9,7 C 4,8 km/h (1 Bft)
26.05.2019 06:21 9,6 C 7,2 C 10,0 C 11,7 C 12,2 C 87 % 13 lf 174 cb 93 cb 71 cb 9 cb 1016,3 hPa 0,0 l/m 0,9 km/h (0 Bft) W 269 0 min 0,000 mm 0,0 UV-I 30 W/m 7,5 C 9,6 C 4,8 km/h (1 Bft)
26.05.2019 06:19 9,6 C 7,2 C 10,0 C 11,7 C 12,2 C 87 % 14 lf 175 cb 93 cb 71 cb 9 cb 1016,3 hPa 0,0 l/m 2,1 km/h (1 Bft) W 269 0 min 0,000 mm 0,0 UV-I 30 W/m 7,5 C 9,6 C 6,4 km/h (2 Bft)
26.05.2019 06:17 9,6 C 6,7 C 10,0 C 11,7 C 12,2 C 88 % 15 lf 173 cb 93 cb 71 cb 9 cb 1016,3 hPa 0,0 l/m 1,4 km/h (1 Bft) W 270 0 min 0,000 mm 0,0 UV-I 28 W/m 7,7 C 9,6 C 4,8 km/h (1 Bft)
26.05.2019 06:15 9,6 C 6,7 C 10,0 C 11,7 C 12,2 C 88 % 15 lf 173 cb 93 cb 71 cb 9 cb 1016,2 hPa 0,0 l/m 3,9 km/h (1 Bft) W 270 0 min 0,000 mm 0,0 UV-I 26 W/m 7,7 C 9,6 C 8,0 km/h (2 Bft)
26.05.2019 06:13 9,6 C 6,7 C 10,0 C 11,7 C 12,2 C 88 % 15 lf 173 cb 93 cb 71 cb 9 cb 1016,3 hPa 0,0 l/m 1,1 km/h (1 Bft) W 270 0 min 0,000 mm 0,0 UV-I 25 W/m 7,7 C 9,6 C 8,0 km/h (2 Bft)
26.05.2019 06:11 9,5 C 6,7 C 10,0 C 11,7 C 12,2 C 88 % 15 lf 173 cb 93 cb 71 cb 9 cb 1016,2 hPa 0,0 l/m 0,0 km/h (0 Bft) W 270 0 min 0,000 mm 0,0 UV-I 23 W/m 7,6 C 9,5 C 0,0 km/h (0 Bft)
26.05.2019 06:09 9,4 C 6,7 C 10,0 C 11,7 C 12,2 C 88 % 15 lf 173 cb 93 cb 71 cb 9 cb 1016,2 hPa 0,0 l/m 0,3 km/h (0 Bft) W 270 0 min 0,000 mm 0,0 UV-I 21 W/m 7,5 C 9,4 C 3,2 km/h (1 Bft)
26.05.2019 06:07 9,4 C 6,7 C 10,0 C 11,7 C 12,2 C 88 % 15 lf 174 cb 93 cb 71 cb 9 cb 1016,2 hPa 0,0 l/m 1,4 km/h (1 Bft) W 270 0 min 0,000 mm 0,0 UV-I 23 W/m 7,5 C 9,4 C 4,8 km/h (1 Bft)
26.05.2019 06:05 9,3 C 6,7 C 10,0 C 11,7 C 12,2 C 88 % 15 lf 174 cb 93 cb 71 cb 9 cb 1016,2 hPa 0,0 l/m 1,7 km/h (1 Bft) W 270 0 min 0,000 mm 0,0 UV-I 19 W/m 7,4 C 9,3 C 6,4 km/h (2 Bft)
26.05.2019 06:03 9,3 C 6,7 C 10,0 C 11,7 C 12,2 C 88 % 15 lf 174 cb 93 cb 71 cb 9 cb 1016,3 hPa 0,0 l/m 2,3 km/h (1 Bft) W 270 0 min 0,000 mm 0,0 UV-I 18 W/m 7,4 C 9,3 C 4,8 km/h (1 Bft)
26.05.2019 06:01 9,3 C 6,1 C 10,0 C 11,7 C 12,2 C 88 % 15 lf 173 cb 93 cb 71 cb 9 cb 1016,3 hPa 0,0 l/m 1,7 km/h (1 Bft) W 270 0 min 0,000 mm 0,0 UV-I 16 W/m 7,4 C 9,3 C 4,8 km/h (1 Bft)
26.05.2019 05:59 9,2 C 6,1 C 10,0 C 11,7 C 12,2 C 88 % 15 lf 173 cb 93 cb 71 cb 9 cb 1016,3 hPa 0,0 l/m 1,1 km/h (1 Bft) W 270 0 min 0,000 mm 0,0 UV-I 16 W/m 7,3 C 9,2 C 6,4 km/h (2 Bft)
26.05.2019 05:57 9,2 C 6,1 C 10,0 C 11,7 C 12,2 C 88 % 15 lf 173 cb 93 cb 71 cb 9 cb 1016,3 hPa 0,0 l/m 2,3 km/h (1 Bft) W 270 0 min 0,000 mm 0,0 UV-I 16 W/m 7,3 C 9,2 C 6,4 km/h (2 Bft)
26.05.2019 05:55 9,2 C 6,1 C 10,0 C 11,7 C 12,2 C 88 % 15 lf 173 cb 93 cb 71 cb 9 cb 1016,3 hPa 0,0 l/m 0,3 km/h (0 Bft) W 270 0 min 0,000 mm 0,0 UV-I 12 W/m 7,3 C 9,2 C 1,6 km/h (1 Bft)
26.05.2019 05:53 9,2 C 6,1 C 10,0 C 11,7 C 12,2 C 87 % 15 lf 173 cb 93 cb 71 cb 9 cb 1016,3 hPa 0,0 l/m 2,2 km/h (1 Bft) W 270 0 min 0,000 mm 0,0 UV-I 11 W/m 7,2 C 9,2 C 4,8 km/h (1 Bft)
26.05.2019 05:51 9,2 C 6,1 C 10,0 C 11,7 C 12,2 C 88 % 15 lf 173 cb 93 cb 71 cb 9 cb 1016,3 hPa 0,0 l/m 1,5 km/h (1 Bft) W 270 0 min 0,000 mm 0,0 UV-I 11 W/m 7,3 C 9,2 C 4,8 km/h (1 Bft)
26.05.2019 05:49 9,2 C 6,1 C 10,0 C 11,7 C 12,2 C 88 % 15 lf 173 cb 93 cb 71 cb 9 cb 1016,4 hPa 0,0 l/m 1,1 km/h (1 Bft) W 270 0 min 0,000 mm 0,0 UV-I 9 W/m 7,3 C 9,2 C 4,8 km/h (1 Bft)
26.05.2019 05:47 9,1 C 6,1 C 10,0 C 11,7 C 12,2 C 88 % 15 lf 173 cb 93 cb 71 cb 9 cb 1016,3 hPa 0,0 l/m 3,4 km/h (1 Bft) W 270 0 min 0,000 mm 0,0 UV-I 7 W/m 7,2 C 9,1 C 6,4 km/h (2 Bft)
26.05.2019 05:45 9,1 C 6,1 C 10,0 C 11,7 C 12,2 C 88 % 15 lf 173 cb 93 cb 71 cb 9 cb 1016,3 hPa 0,0 l/m 0,2 km/h (0 Bft) W 270 0 min 0,000 mm 0,0 UV-I 7 W/m 7,2 C 9,1 C 3,2 km/h (1 Bft)
26.05.2019 05:43 9,1 C 6,1 C 10,0 C 11,7 C 12,2 C 88 % 15 lf 173 cb 93 cb 71 cb 9 cb 1016,3 hPa 0,0 l/m 1,2 km/h (1 Bft) W 270 0 min 0,000 mm 0,0 UV-I 5 W/m 7,2 C 9,1 C 4,8 km/h (1 Bft)
26.05.2019 05:41 9,1 C 6,1 C 10,0 C 11,7 C 12,2 C 88 % 15 lf 173 cb 93 cb 71 cb 9 cb 1016,3 hPa 0,0 l/m 0,0 km/h (0 Bft) W 270 0 min 0,000 mm 0,0 UV-I 5 W/m 7,2 C 9,1 C 0,0 km/h (0 Bft)
26.05.2019 05:39 9,1 C 6,1 C 10,0 C 11,7 C 12,2 C 89 % 15 lf 173 cb 93 cb 70 cb 9 cb 1016,3 hPa 0,0 l/m 1,6 km/h (1 Bft) W 270 0 min 0,000 mm 0,0 UV-I 0 W/m 7,4 C 9,1 C 6,4 km/h (2 Bft)
26.05.2019 05:37 9,1 C 6,1 C 10,0 C 11,7 C 12,2 C 89 % 15 lf 173 cb 93 cb 70 cb 9 cb 1016,3 hPa 0,0 l/m 1,1 km/h (1 Bft) W 270 0 min 0,000 mm 0,0 UV-I 0 W/m 7,4 C 9,1 C 4,8 km/h (1 Bft)
26.05.2019 05:35 9,1 C 6,1 C 10,0 C 11,7 C 12,2 C 89 % 15 lf 173 cb 93 cb 70 cb 9 cb 1016,3 hPa 0,0 l/m 2,3 km/h (1 Bft) W 270 0 min 0,000 mm 0,0 UV-I 0 W/m 7,4 C 9,1 C 4,8 km/h (1 Bft)
26.05.2019 05:33 9,1 C 6,1 C 10,0 C 11,7 C 12,2 C 89 % 15 lf 173 cb 93 cb 70 cb 9 cb 1016,3 hPa 0,0 l/m 2,6 km/h (1 Bft) W 270 0 min 0,000 mm 0,0 UV-I 0 W/m 7,4 C 9,1 C 8,0 km/h (2 Bft)
26.05.2019 05:32 9,1 C 6,1 C 10,0 C 11,7 C 12,2 C 90 % 15 lf 173 cb 93 cb 70 cb 9 cb 1016,3 hPa 0,0 l/m 1,0 km/h (0 Bft) W 270 0 min 0,000 mm 0,0 UV-I 0 W/m 7,5 C 9,1 C 3,2 km/h (1 Bft)
26.05.2019 05:31 9,1 C 6,1 C 10,0 C 11,7 C 12,2 C 90 % 15 lf 173 cb 93 cb 70 cb 9 cb 1016,2 hPa 0,0 l/m 3,0 km/h (1 Bft) W 271 0 min 0,000 mm 0,0 UV-I 0 W/m 7,5 C 9,1 C 6,4 km/h (2 Bft)
26.05.2019 05:30 9,0 C 6,1 C 10,0 C 11,7 C 12,2 C 90 % 15 lf 173 cb 93 cb 70 cb 9 cb 1016,3 hPa 0,0 l/m 3,8 km/h (1 Bft) W 271 0 min 0,000 mm 0,0 UV-I 0 W/m 7,4 C 9,0 C 8,0 km/h (2 Bft)
26.05.2019 05:28 9,0 C 6,1 C 10,0 C 11,7 C 12,2 C 90 % 15 lf 173 cb 93 cb 70 cb 9 cb 1016,3 hPa 0,0 l/m 2,9 km/h (1 Bft) W 271 0 min 0,000 mm 0,0 UV-I 0 W/m 7,4 C 9,0 C 8,0 km/h (2 Bft)
26.05.2019 05:26 9,0 C 6,1 C 10,0 C 11,7 C 12,2 C 91 % 15 lf 173 cb 93 cb 70 cb 9 cb 1016,3 hPa 0,0 l/m 3,0 km/h (1 Bft) W 271 0 min 0,000 mm 0,0 UV-I 0 W/m 7,6 C 9,0 C 6,4 km/h (2 Bft)
26.05.2019 05:24 9,0 C 6,1 C 10,0 C 11,7 C 12,2 C 91 % 15 lf 173 cb 93 cb 70 cb 9 cb 1016,3 hPa 0,0 l/m 3,5 km/h (1 Bft) W 271 0 min 0,000 mm 0,0 UV-I 0 W/m 7,6 C 9,0 C 8,0 km/h (2 Bft)
26.05.2019 05:22 8,9 C 6,1 C 10,0 C 11,7 C 12,2 C 91 % 15 lf 171 cb 93 cb 70 cb 9 cb 1016,3 hPa 0,0 l/m 3,3 km/h (1 Bft) W 271 0 min 0,000 mm 0,0 UV-I 0 W/m 7,5 C 8,9 C 6,4 km/h (2 Bft)
26.05.2019 05:20 8,9 C 6,1 C 10,0 C 11,7 C 12,2 C 91 % 15 lf 173 cb 93 cb 70 cb 9 cb 1016,3 hPa 0,0 l/m 3,3 km/h (1 Bft) W 272 0 min 0,000 mm 0,0 UV-I 0 W/m 7,5 C 8,9 C 6,4 km/h (2 Bft)
26.05.2019 05:18 8,9 C 6,1 C 10,0 C 11,7 C 12,2 C 92 % 15 lf 171 cb 93 cb 70 cb 9 cb 1016,3 hPa 0,0 l/m 1,6 km/h (1 Bft) W 272 0 min 0,000 mm 0,0 UV-I 0 W/m 7,7 C 8,9 C 4,8 km/h (1 Bft)
26.05.2019 05:16 8,8 C 6,1 C 10,0 C 11,7 C 12,2 C 92 % 15 lf 171 cb 93 cb 70 cb 9 cb 1016,2 hPa 0,0 l/m 4,6 km/h (1 Bft) W 272 0 min 0,000 mm 0,0 UV-I 0 W/m 7,6 C 8,8 C 6,4 km/h (2 Bft)
26.05.2019 05:14 8,8 C 6,1 C 10,0 C 11,7 C 12,2 C 92 % 15 lf 171 cb 93 cb 70 cb 9 cb 1016,2 hPa 0,0 l/m 3,1 km/h (1 Bft) W 271 0 min 0,000 mm 0,0 UV-I 0 W/m 7,6 C 8,8 C 4,8 km/h (1 Bft)
26.05.2019 05:12 8,7 C 6,1 C 10,0 C 11,7 C 12,2 C 92 % 15 lf 171 cb 93 cb 70 cb 9 cb 1016,3 hPa 0,0 l/m 3,0 km/h (1 Bft) W 272 0 min 0,000 mm 0,0 UV-I 0 W/m 7,5 C 8,7 C 6,4 km/h (2 Bft)
26.05.2019 05:10 8,7 C 6,1 C 10,0 C 11,7 C 12,2 C 92 % 15 lf 171 cb 93 cb 70 cb 9 cb 1016,3 hPa 0,0 l/m 3,3 km/h (1 Bft) W 271 0 min 0,000 mm 0,0 UV-I 0 W/m 7,5 C 8,7 C 8,0 km/h (2 Bft)
26.05.2019 05:08 8,7 C 6,1 C 10,0 C 11,7 C 12,2 C 92 % 15 lf 173 cb 93 cb 70 cb 9 cb 1016,3 hPa 0,0 l/m 3,2 km/h (1 Bft) W 272 0 min 0,000 mm 0,0 UV-I 0 W/m 7,5 C 8,7 C 4,8 km/h (1 Bft)
26.05.2019 05:06 8,7 C 6,1 C 10,6 C 11,7 C 12,2 C 92 % 15 lf 171 cb 93 cb 70 cb 9 cb 1016,3 hPa 0,0 l/m 4,6 km/h (1 Bft) W 273 0 min 0,000 mm 0,0 UV-I 0 W/m 7,5 C 8,7 C 6,4 km/h (2 Bft)
26.05.2019 05:04 8,7 C 6,1 C 10,6 C 11,7 C 12,2 C 93 % 15 lf 171 cb 93 cb 70 cb 9 cb 1016,4 hPa 0,0 l/m 4,9 km/h (1 Bft) W 273 0 min 0,000 mm 0,0 UV-I 0 W/m 7,6 C 8,7 C 11,3 km/h (2 Bft)
26.05.2019 05:02 8,7 C 6,1 C 10,6 C 11,7 C 12,2 C 93 % 15 lf 171 cb 93 cb 69 cb 9 cb 1016,4 hPa 0,0 l/m 2,0 km/h (1 Bft) W 263 0 min 0,000 mm 0,0 UV-I 0 W/m 7,6 C 8,7 C 4,8 km/h (1 Bft)
26.05.2019 05:00 8,7 C 6,1 C 10,6 C 11,7 C 12,2 C 93 % 15 lf 171 cb 93 cb 69 cb 9 cb 1016,4 hPa 0,0 l/m 3,7 km/h (1 Bft) W 263 0 min 0,000 mm 0,0 UV-I 0 W/m 7,6 C 8,7 C 6,4 km/h (2 Bft)
26.05.2019 04:58 8,7 C 6,1 C 10,6 C 11,7 C 12,2 C 93 % 15 lf 171 cb 93 cb 69 cb 9 cb 1016,4 hPa 0,0 l/m 2,9 km/h (1 Bft) W 263 0 min 0,000 mm 0,0 UV-I 0 W/m 7,6 C 8,7 C 8,0 km/h (2 Bft)
26.05.2019 04:56 8,7 C 6,1 C 10,6 C 11,7 C 12,2 C 93 % 15 lf 171 cb 93 cb 69 cb 9 cb 1016,5 hPa 0,0 l/m 3,2 km/h (1 Bft) W 263 0 min 0,000 mm 0,0 UV-I 0 W/m 7,6 C 8,7 C 6,4 km/h (2 Bft)
26.05.2019 04:54 8,7 C 6,1 C 10,6 C 11,7 C 12,2 C 93 % 15 lf 171 cb 93 cb 69 cb 9 cb 1016,4 hPa 0,0 l/m 1,8 km/h (1 Bft) W 263 0 min 0,000 mm 0,0 UV-I 0 W/m 7,6 C 8,7 C 6,4 km/h (2 Bft)
26.05.2019 04:52 8,8 C 6,1 C 10,6 C 11,7 C 12,2 C 93 % 15 lf 171 cb 93 cb 69 cb 9 cb 1016,5 hPa 0,0 l/m 1,2 km/h (1 Bft) W 263 0 min 0,000 mm 0,0 UV-I 0 W/m 7,7 C 8,8 C 4,8 km/h (1 Bft)
26.05.2019 04:50 8,8 C 6,1 C 10,6 C 12,2 C 12,2 C 93 % 15 lf 171 cb 93 cb 70 cb 9 cb 1016,5 hPa 0,0 l/m 1,4 km/h (1 Bft) W 263 0 min 0,000 mm 0,0 UV-I 0 W/m 7,7 C 8,8 C 4,8 km/h (1 Bft)
26.05.2019 04:48 8,9 C 6,1 C 10,6 C 12,2 C 12,2 C 93 % 15 lf 171 cb 93 cb 70 cb 9 cb 1016,4 hPa 0,0 l/m 0,5 km/h (0 Bft) W 263 0 min 0,000 mm 0,0 UV-I 0 W/m 7,8 C 8,9 C 3,2 km/h (1 Bft)
26.05.2019 04:46 8,9 C 6,1 C 10,6 C 12,2 C 12,2 C 94 % 15 lf 170 cb 93 cb 70 cb 9 cb 1016,4 hPa 0,0 l/m 1,1 km/h (1 Bft) W 263 0 min 0,000 mm 0,0 UV-I 0 W/m 8,0 C 8,9 C 4,8 km/h (1 Bft)
26.05.2019 04:44 9,0 C 6,1 C 10,6 C 12,2 C 12,2 C 94 % 15 lf 170 cb 93 cb 70 cb 9 cb 1016,5 hPa 0,0 l/m 0,2 km/h (0 Bft) W 263 0 min 0,000 mm 0,0 UV-I 0 W/m 8,1 C 9,0 C 3,2 km/h (1 Bft)
26.05.2019 04:42 9,1 C 6,1 C 10,6 C 12,2 C 12,8 C 94 % 15 lf 170 cb 93 cb 70 cb 10 cb 1016,4 hPa 0,0 l/m 2,4 km/h (1 Bft) W 263 0 min 0,000 mm 0,0 UV-I 0 W/m 8,2 C 9,1 C 8,0 km/h (2 Bft)
26.05.2019 04:40 9,2 C 6,1 C 10,6 C 12,2 C 12,8 C 94 % 15 lf 169 cb 93 cb 69 cb 10 cb 1016,5 hPa 0,0 l/m 0,4 km/h (0 Bft) W 263 0 min 0,000 mm 0,0 UV-I 0 W/m 8,3 C 9,2 C 4,8 km/h (1 Bft)
26.05.2019 04:38 9,2 C 6,7 C 10,6 C 12,2 C 12,8 C 94 % 15 lf 172 cb 93 cb 69 cb 10 cb 1016,5 hPa 0,0 l/m 2,4 km/h (1 Bft) W 263 0 min 0,000 mm 0,0 UV-I 0 W/m 8,3 C 9,2 C 6,4 km/h (2 Bft)
26.05.2019 04:36 9,2 C 6,7 C 10,6 C 12,2 C 12,8 C 94 % 15 lf 172 cb 93 cb 69 cb 10 cb 1016,5 hPa 0,0 l/m 3,7 km/h (1 Bft) W 263 0 min 0,000 mm 0,0 UV-I 0 W/m 8,3 C 9,2 C 8,0 km/h (2 Bft)
26.05.2019 04:34 9,3 C 6,7 C 10,6 C 12,2 C 12,8 C 94 % 15 lf 172 cb 93 cb 69 cb 10 cb 1016,6 hPa 0,0 l/m 1,6 km/h (1 Bft) W 263 0 min 0,000 mm 0,0 UV-I 0 W/m 8,4 C 9,3 C 4,8 km/h (1 Bft)
26.05.2019 04:32 9,3 C 6,7 C 10,6 C 12,2 C 12,8 C 94 % 15 lf 172 cb 93 cb 69 cb 10 cb 1016,6 hPa 0,0 l/m 3,2 km/h (1 Bft) W 263 0 min 0,000 mm 0,0 UV-I 0 W/m 8,4 C 9,3 C 8,0 km/h (2 Bft)
26.05.2019 04:31 9,4 C 6,7 C 10,6 C 12,2 C 12,8 C 94 % 15 lf 171 cb 93 cb 69 cb 10 cb 1016,6 hPa 0,0 l/m 0,4 km/h (0 Bft) W 263 0 min 0,000 mm 0,0 UV-I 0 W/m 8,5 C 9,4 C 3,2 km/h (1 Bft)
26.05.2019 04:30 9,4 C 6,7 C 10,6 C 12,2 C 12,8 C 94 % 15 lf 171 cb 93 cb 69 cb 10 cb 1016,6 hPa 0,0 l/m 2,1 km/h (1 Bft) W 263 0 min 0,000 mm 0,0 UV-I 0 W/m 8,5 C 9,4 C 6,4 km/h (2 Bft)
26.05.2019 04:28 9,4 C 6,7 C 10,6 C 12,2 C 12,8 C 94 % 15 lf 171 cb 93 cb 69 cb 10 cb 1016,6 hPa 0,0 l/m 4,5 km/h (1 Bft) W 263 0 min 0,000 mm 0,0 UV-I 0 W/m 8,5 C 9,4 C 8,0 km/h (2 Bft)
26.05.2019 04:26 9,4 C 7,2 C 10,6 C 12,2 C 12,8 C 94 % 15 lf 172 cb 93 cb 69 cb 10 cb 1016,6 hPa 0,0 l/m 0,8 km/h (0 Bft) W 263 0 min 0,000 mm 0,0 UV-I 0 W/m 8,5 C 9,4 C 6,4 km/h (2 Bft)
26.05.2019 04:24 9,4 C 7,2 C 10,6 C 12,2 C 12,8 C 94 % 15 lf 172 cb 93 cb 69 cb 10 cb 1016,5 hPa 0,0 l/m 0,5 km/h (0 Bft) W 263 0 min 0,000 mm 0,0 UV-I 0 W/m 8,5 C 9,4 C 6,4 km/h (2 Bft)
26.05.2019 04:22 9,5 C 7,2 C 10,6 C 12,2 C 12,8 C 94 % 15 lf 172 cb 93 cb 69 cb 10 cb 1016,5 hPa 0,0 l/m 0,0 km/h (0 Bft) W 263 0 min 0,000 mm 0,0 UV-I 0 W/m 8,6 C 9,5 C 0,0 km/h (0 Bft)
26.05.2019 04:20 9,5 C 7,2 C 10,6 C 12,2 C 12,8 C 94 % 15 lf 172 cb 93 cb 69 cb 10 cb 1016,6 hPa 0,0 l/m 0,0 km/h (0 Bft) W 263 0 min 0,000 mm 0,0 UV-I 0 W/m 8,6 C 9,5 C 0,0 km/h (0 Bft)
26.05.2019 04:18 9,6 C 7,2 C 10,6 C 12,2 C 12,8 C 94 % 15 lf 172 cb 93 cb 69 cb 10 cb 1016,6 hPa 0,0 l/m 1,1 km/h (1 Bft) W 263 0 min 0,000 mm 0,0 UV-I 0 W/m 8,7 C 9,6 C 6,4 km/h (2 Bft)
26.05.2019 04:16 9,6 C 7,2 C 10,6 C 12,2 C 12,8 C 94 % 15 lf 172 cb 93 cb 69 cb 10 cb 1016,7 hPa 0,0 l/m 0,1 km/h (0 Bft) W 263 0 min 0,000 mm 0,0 UV-I 0 W/m 8,7 C 9,6 C 3,2 km/h (1 Bft)
26.05.2019 04:14 9,6 C 7,2 C 10,6 C 12,2 C 12,8 C 94 % 15 lf 172 cb 93 cb 69 cb 10 cb 1016,7 hPa 0,0 l/m 0,0 km/h (0 Bft) W 263 0 min 0,000 mm 0,0 UV-I 0 W/m 8,7 C 9,6 C 0,0 km/h (0 Bft)
26.05.2019 04:12 9,6 C 7,2 C 10,6 C 12,2 C 12,8 C 94 % 15 lf 172 cb 93 cb 69 cb 10 cb 1016,7 hPa 0,0 l/m 0,7 km/h (0 Bft) W 263 0 min 0,000 mm 0,0 UV-I 0 W/m 8,7 C 9,6 C 6,4 km/h (2 Bft)
26.05.2019 04:10 9,6 C 7,2 C 10,6 C 12,2 C 12,8 C 94 % 15 lf 172 cb 93 cb 69 cb 10 cb 1016,7 hPa 0,0 l/m 0,0 km/h (0 Bft) W 263 0 min 0,000 mm 0,0 UV-I 0 W/m 8,7 C 9,6 C 0,0 km/h (0 Bft)
26.05.2019 04:08 9,6 C 7,2 C 10,6 C 12,2 C 12,8 C 94 % 15 lf 172 cb 93 cb 69 cb 10 cb 1016,8 hPa 0,0 l/m 1,2 km/h (1 Bft) W 263 0 min 0,000 mm 0,0 UV-I 0 W/m 8,7 C 9,6 C 6,4 km/h (2 Bft)
26.05.2019 04:06 9,5 C 6,7 C 10,6 C 12,2 C 12,8 C 94 % 15 lf 171 cb 93 cb 69 cb 10 cb 1016,8 hPa 0,0 l/m 1,9 km/h (1 Bft) W 263 0 min 0,000 mm 0,0 UV-I 0 W/m 8,6 C 9,5 C 8,0 km/h (2 Bft)
26.05.2019 04:04 9,6 C 6,7 C 10,6 C 12,2 C 12,8 C 94 % 15 lf 171 cb 93 cb 68 cb 10 cb 1016,8 hPa 0,0 l/m 0,7 km/h (0 Bft) W 264 0 min 0,000 mm 0,0 UV-I 0 W/m 8,7 C 9,6 C 6,4 km/h (2 Bft)
26.05.2019 04:02 9,6 C 6,7 C 10,6 C 12,2 C 12,8 C 94 % 15 lf 171 cb 93 cb 68 cb 10 cb 1016,9 hPa 0,0 l/m 1,4 km/h (1 Bft) W 264 0 min 0,000 mm 0,0 UV-I 0 W/m 8,7 C 9,6 C 4,8 km/h (1 Bft)
26.05.2019 04:00 9,6 C 6,7 C 10,6 C 12,2 C 12,8 C 94 % 15 lf 171 cb 93 cb 68 cb 10 cb 1016,9 hPa 0,0 l/m 1,6 km/h (1 Bft) W 264 0 min 0,000 mm 0,0 UV-I 0 W/m 8,7 C 9,6 C 4,8 km/h (1 Bft)
26.05.2019 03:58 9,6 C 6,7 C 10,6 C 12,2 C 12,8 C 94 % 15 lf 171 cb 93 cb 68 cb 10 cb 1016,8 hPa 0,0 l/m 1,0 km/h (0 Bft) W 264 0 min 0,000 mm 0,0 UV-I 0 W/m 8,7 C 9,6 C 4,8 km/h (1 Bft)
26.05.2019 03:56 9,6 C 6,7 C 10,6 C 12,2 C 12,8 C 94 % 15 lf 171 cb 93 cb 68 cb 10 cb 1016,8 hPa 0,0 l/m 2,1 km/h (1 Bft) W 264 0 min 0,000 mm 0,0 UV-I 0 W/m 8,7 C 9,6 C 8,0 km/h (2 Bft)
26.05.2019 03:54 9,6 C 6,7 C 10,6 C 12,2 C 12,8 C 93 % 15 lf 171 cb 93 cb 68 cb 10 cb 1016,8 hPa 0,0 l/m 0,0 km/h (0 Bft) W 264 0 min 0,000 mm 0,0 UV-I 0 W/m 8,5 C 9,6 C 0,0 km/h (0 Bft)
26.05.2019 03:52 9,7 C 7,2 C 10,6 C 12,2 C 12,8 C 93 % 15 lf 172 cb 93 cb 68 cb 10 cb 1016,8 hPa 0,0 l/m 0,0 km/h (0 Bft) W 263 0 min 0,000 mm 0,0 UV-I 0 W/m 8,6 C 9,7 C 0,0 km/h (0 Bft)
26.05.2019 03:50 9,7 C 6,7 C 10,6 C 12,2 C 12,8 C 93 % 15 lf 171 cb 93 cb 68 cb 10 cb 1016,8 hPa 0,0 l/m 0,0 km/h (0 Bft) W 263 0 min 0,000 mm 0,0 UV-I 0 W/m 8,6 C 9,7 C 0,0 km/h (0 Bft)
26.05.2019 03:48 9,7 C 6,7 C 10,6 C 12,2 C 12,8 C 93 % 15 lf 171 cb 93 cb 68 cb 10 cb 1016,8 hPa 0,0 l/m 0,0 km/h (0 Bft) W 263 0 min 0,000 mm 0,0 UV-I 0 W/m 8,6 C 9,7 C 0,0 km/h (0 Bft)
26.05.2019 03:46 9,7 C 6,7 C 10,6 C 12,2 C 12,8 C 93 % 15 lf 171 cb 93 cb 68 cb 10 cb 1016,8 hPa 0,0 l/m 0,0 km/h (0 Bft) W 263 0 min 0,000 mm 0,0 UV-I 0 W/m 8,6 C 9,7 C 0,0 km/h (0 Bft)
26.05.2019 03:44 9,7 C 7,2 C 10,6 C 12,2 C 12,8 C 94 % 15 lf 171 cb 93 cb 68 cb 10 cb 1016,8 hPa 0,0 l/m 0,1 km/h (0 Bft) W 263 0 min 0,000 mm 0,0 UV-I 0 W/m 8,8 C 9,7 C 1,6 km/h (1 Bft)
26.05.2019 03:42 9,8 C 7,2 C 10,6 C 12,2 C 12,8 C 93 % 15 lf 172 cb 93 cb 68 cb 10 cb 1016,8 hPa 0,0 l/m 2,0 km/h (1 Bft) W 263 0 min 0,000 mm 0,0 UV-I 0 W/m 8,7 C 9,8 C 4,8 km/h (1 Bft)
26.05.2019 03:40 9,8 C 7,2 C 10,6 C 12,2 C 12,8 C 93 % 15 lf 172 cb 93 cb 68 cb 10 cb 1016,8 hPa 0,0 l/m 0,2 km/h (0 Bft) W 264 0 min 0,000 mm 0,0 UV-I 0 W/m 8,7 C 9,8 C 3,2 km/h (1 Bft)
26.05.2019 03:38 9,8 C 7,2 C 10,6 C 12,2 C 12,8 C 93 % 15 lf 172 cb 93 cb 68 cb 10 cb 1016,8 hPa 0,0 l/m 0,0 km/h (0 Bft) W 264 0 min 0,000 mm 0,0 UV-I 0 W/m 8,7 C 9,8 C 0,0 km/h (0 Bft)
26.05.2019 03:36 9,8 C 7,2 C 10,6 C 12,2 C 12,8 C 93 % 15 lf 171 cb 93 cb 68 cb 10 cb 1016,8 hPa 0,0 l/m 0,0 km/h (0 Bft) W 264 0 min 0,000 mm 0,0 UV-I 0 W/m 8,7 C 9,8 C 0,0 km/h (0 Bft)
26.05.2019 03:34 9,9 C 7,2 C 10,6 C 12,2 C 12,8 C 93 % 15 lf 172 cb 93 cb 68 cb 10 cb 1016,8 hPa 0,0 l/m 0,0 km/h (0 Bft) W 264 0 min 0,000 mm 0,0 UV-I 0 W/m 8,8 C 9,9 C 0,0 km/h (0 Bft)
26.05.2019 03:32 9,9 C 7,2 C 10,6 C 12,2 C 12,8 C 93 % 15 lf 172 cb 93 cb 68 cb 10 cb 1016,8 hPa 0,0 l/m 1,2 km/h (1 Bft) W 264 0 min 0,000 mm 0,0 UV-I 0 W/m 8,8 C 9,9 C 8,0 km/h (2 Bft)
26.05.2019 03:30 9,9 C 7,2 C 10,6 C 12,2 C 12,8 C 93 % 15 lf 172 cb 93 cb 68 cb 10 cb 1016,8 hPa 0,0 l/m 2,2 km/h (1 Bft) W 266 0 min 0,000 mm 0,0 UV-I 0 W/m 8,8 C 9,9 C 3,2 km/h (1 Bft)
26.05.2019 03:29 10,0 C 7,2 C 10,6 C 12,2 C 12,8 C 93 % 15 lf 172 cb 93 cb 68 cb 10 cb 1016,8 hPa 0,0 l/m 5,0 km/h (1 Bft) W 266 0 min 0,000 mm 0,0 UV-I 0 W/m 8,9 C 10,0 C 8,0 km/h (2 Bft)
26.05.2019 03:28 10,0 C 7,2 C 10,6 C 12,2 C 12,8 C 93 % 15 lf 172 cb 93 cb 68 cb 10 cb 1016,8 hPa 0,0 l/m 1,1 km/h (1 Bft) W 265 0 min 0,000 mm 0,0 UV-I 0 W/m 8,9 C 10,0 C 6,4 km/h (2 Bft)
26.05.2019 03:26 10,1 C 7,2 C 10,6 C 12,2 C 12,8 C 93 % 15 lf 172 cb 93 cb 67 cb 10 cb 1016,8 hPa 0,0 l/m 0,7 km/h (0 Bft) W 265 0 min 0,000 mm 0,0 UV-I 0 W/m 9,0 C 10,1 C 4,8 km/h (1 Bft)
26.05.2019 03:24 10,1 C 6,7 C 10,6 C 12,2 C 12,8 C 93 % 15 lf 171 cb 93 cb 67 cb 10 cb 1016,8 hPa 0,0 l/m 3,4 km/h (1 Bft) W 265 0 min 0,000 mm 0,0 UV-I 0 W/m 9,0 C 10,1 C 8,0 km/h (2 Bft)
26.05.2019 03:22 10,1 C 6,7 C 10,6 C 12,2 C 12,8 C 93 % 15 lf 171 cb 93 cb 67 cb 10 cb 1016,8 hPa 0,0 l/m 0,0 km/h (0 Bft) W 267 0 min 0,000 mm 0,0 UV-I 0 W/m 9,0 C 10,1 C 1,6 km/h (1 Bft)
26.05.2019 03:20 10,1 C 6,7 C 10,6 C 12,2 C 12,8 C 93 % 15 lf 171 cb 93 cb 67 cb 10 cb 1016,8 hPa 0,0 l/m 1,7 km/h (1 Bft) W 267 0 min 0,000 mm 0,0 UV-I 0 W/m 9,0 C 10,1 C 4,8 km/h (1 Bft)
26.05.2019 03:18 10,1 C 7,2 C 10,6 C 12,2 C 12,8 C 93 % 15 lf 172 cb 93 cb 67 cb 10 cb 1016,8 hPa 0,0 l/m 0,0 km/h (0 Bft) W 267 0 min 0,000 mm 0,0 UV-I 0 W/m 9,0 C 10,1 C 0,0 km/h (0 Bft)
26.05.2019 03:16 10,2 C 7,2 C 10,6 C 12,2 C 12,8 C 93 % 15 lf 172 cb 93 cb 67 cb 10 cb 1016,8 hPa 0,0 l/m 0,0 km/h (0 Bft) W 267 0 min 0,000 mm 0,0 UV-I 0 W/m 9,1 C 10,2 C 0,0 km/h (0 Bft)
26.05.2019 03:14 10,2 C 7,2 C 10,6 C 12,2 C 12,8 C 93 % 15 lf 172 cb 93 cb 67 cb 10 cb 1016,8 hPa 0,0 l/m 0,5 km/h (0 Bft) W 267 0 min 0,000 mm 0,0 UV-I 0 W/m 9,1 C 10,2 C 4,8 km/h (1 Bft)
26.05.2019 03:12 10,2 C 7,2 C 10,6 C 12,2 C 12,8 C 93 % 15 lf 172 cb 93 cb 67 cb 10 cb 1016,8 hPa 0,0 l/m 0,4 km/h (0 Bft) W 266 0 min 0,000 mm 0,0 UV-I 0 W/m 9,1 C 10,2 C 4,8 km/h (1 Bft)
26.05.2019 03:10 10,2 C 7,2 C 10,6 C 12,2 C 12,8 C 93 % 15 lf 172 cb 93 cb 67 cb 10 cb 1016,8 hPa 0,0 l/m 3,1 km/h (1 Bft) W 267 0 min 0,000 mm 0,0 UV-I 0 W/m 9,1 C 10,2 C 6,4 km/h (2 Bft)
26.05.2019 03:08 10,2 C 7,2 C 10,6 C 12,2 C 12,8 C 93 % 15 lf 172 cb 93 cb 67 cb 10 cb 1016,8 hPa 0,0 l/m 3,4 km/h (1 Bft) W 265 0 min 0,000 mm 0,0 UV-I 0 W/m 9,1 C 10,2 C 4,8 km/h (1 Bft)
26.05.2019 03:07 10,2 C 7,2 C 10,6 C 12,2 C 12,8 C 93 % 15 lf 172 cb 93 cb 67 cb 10 cb 1016,8 hPa 0,0 l/m 0,5 km/h (0 Bft) W 265 0 min 0,000 mm 0,0 UV-I 0 W/m 9,1 C 10,2 C 3,2 km/h (1 Bft)
26.05.2019 03:06 10,2 C 7,2 C 10,6 C 12,2 C 12,8 C 93 % 15 lf 172 cb 93 cb 67 cb 10 cb 1016,9 hPa 0,0 l/m 3,2 km/h (1 Bft) W 265 0 min 0,000 mm 0,0 UV-I 0 W/m 9,1 C 10,2 C 8,0 km/h (2 Bft)
26.05.2019 03:04 10,2 C 7,2 C 10,6 C 12,2 C 12,8 C 93 % 15 lf 172 cb 93 cb 67 cb 10 cb 1016,8 hPa 0,0 l/m 3,0 km/h (1 Bft) W 265 0 min 0,000 mm 0,0 UV-I 0 W/m 9,1 C 10,2 C 9,7 km/h (2 Bft)
26.05.2019 03:02 10,2 C 7,2 C 10,6 C 12,2 C 12,8 C 93 % 15 lf 172 cb 93 cb 67 cb 10 cb 1016,9 hPa 0,0 l/m 1,8 km/h (1 Bft) W 265 0 min 0,000 mm 0,0 UV-I 0 W/m 9,1 C 10,2 C 6,4 km/h (2 Bft)
26.05.2019 03:00 10,2 C 7,2 C 10,6 C 12,2 C 12,8 C 93 % 15 lf 172 cb 93 cb 67 cb 10 cb 1016,8 hPa 0,0 l/m 3,5 km/h (1 Bft) W 265 0 min 0,000 mm 0,0 UV-I 0 W/m 9,1 C 10,2 C 11,3 km/h (2 Bft)
26.05.2019 02:58 10,2 C 7,2 C 10,6 C 12,2 C 12,8 C 93 % 15 lf 172 cb 93 cb 67 cb 10 cb 1016,8 hPa 0,0 l/m 3,8 km/h (1 Bft) W 270 0 min 0,000 mm 0,0 UV-I 0 W/m 9,1 C 10,2 C 6,4 km/h (2 Bft)
26.05.2019 02:56 10,2 C 7,8 C 10,6 C 12,2 C 12,8 C 93 % 15 lf 174 cb 93 cb 67 cb 10 cb 1016,8 hPa 0,0 l/m 1,4 km/h (1 Bft) W 270 0 min 0,000 mm 0,0 UV-I 0 W/m 9,1 C 10,2 C 6,4 km/h (2 Bft)
26.05.2019 02:54 10,2 C 7,2 C 10,6 C 12,2 C 12,8 C 93 % 15 lf 172 cb 93 cb 67 cb 10 cb 1016,8 hPa 0,0 l/m 5,1 km/h (1 Bft) W 270 0 min 0,000 mm 0,0 UV-I 0 W/m 9,1 C 10,2 C 9,7 km/h (2 Bft)
26.05.2019 02:52 10,2 C 7,2 C 10,6 C 12,2 C 12,8 C 93 % 15 lf 172 cb 93 cb 67 cb 10 cb 1016,8 hPa 0,0 l/m 3,2 km/h (1 Bft) W 272 0 min 0,000 mm 0,0 UV-I 0 W/m 9,1 C 10,2 C 9,7 km/h (2 Bft)
26.05.2019 02:50 10,1 C 7,2 C 10,6 C 12,2 C 12,8 C 93 % 15 lf 174 cb 93 cb 67 cb 10 cb 1016,9 hPa 0,0 l/m 5,3 km/h (1 Bft) W 275 0 min 0,000 mm 0,0 UV-I 0 W/m 9,0 C 10,1 C 8,0 km/h (2 Bft)
26.05.2019 02:48 10,1 C 7,2 C 10,6 C 12,2 C 12,8 C 93 % 15 lf 174 cb 93 cb 66 cb 10 cb 1016,8 hPa 0,0 l/m 5,1 km/h (1 Bft) W 274 0 min 0,000 mm 0,0 UV-I 0 W/m 9,0 C 10,1 C 11,3 km/h (2 Bft)
26.05.2019 02:46 10,0 C 7,2 C 10,6 C 12,2 C 12,8 C 93 % 15 lf 174 cb 93 cb 66 cb 10 cb 1016,9 hPa 0,0 l/m 3,3 km/h (1 Bft) W 274 0 min 0,000 mm 0,0 UV-I 0 W/m 8,9 C 10,0 C 8,0 km/h (2 Bft)
26.05.2019 02:44 9,9 C 7,2 C 10,6 C 12,2 C 12,8 C 93 % 15 lf 174 cb 93 cb 66 cb 10 cb 1016,9 hPa 0,0 l/m 4,3 km/h (1 Bft) W 274 0 min 0,000 mm 0,0 UV-I 0 W/m 8,8 C 9,9 C 8,0 km/h (2 Bft)
26.05.2019 02:42 9,8 C 6,7 C 10,6 C 12,2 C 12,8 C 93 % 15 lf 172 cb 93 cb 66 cb 10 cb 1016,8 hPa 0,0 l/m 5,7 km/h (1 Bft) W 276 0 min 0,000 mm 0,0 UV-I 0 W/m 8,7 C 9,8 C 14,5 km/h (3 Bft)
26.05.2019 02:40 9,7 C 6,7 C 10,6 C 12,2 C 12,8 C 93 % 15 lf 172 cb 93 cb 66 cb 10 cb 1016,9 hPa 0,0 l/m 3,2 km/h (1 Bft) NW 311 0 min 0,000 mm 0,0 UV-I 0 W/m 8,6 C 9,7 C 6,4 km/h (2 Bft)
26.05.2019 02:38 9,7 C 6,7 C 10,6 C 12,8 C 12,8 C 93 % 15 lf 172 cb 93 cb 67 cb 10 cb 1016,9 hPa 0,0 l/m 3,3 km/h (1 Bft) NW 312 0 min 0,000 mm 0,0 UV-I 0 W/m 8,6 C 9,7 C 9,7 km/h (2 Bft)
26.05.2019 02:36 9,6 C 6,7 C 10,6 C 12,8 C 12,8 C 92 % 15 lf 172 cb 93 cb 67 cb 10 cb 1017,0 hPa 0,0 l/m 3,1 km/h (1 Bft) NW 318 0 min 0,000 mm 0,0 UV-I 0 W/m 8,4 C 9,6 C 6,4 km/h (2 Bft)
26.05.2019 02:34 9,6 C 6,7 C 10,6 C 12,8 C 12,8 C 92 % 15 lf 172 cb 93 cb 67 cb 10 cb 1017,0 hPa 0,0 l/m 0,9 km/h (0 Bft) NW 319 0 min 0,000 mm 0,0 UV-I 0 W/m 8,4 C 9,6 C 4,8 km/h (1 Bft)
26.05.2019 02:32 9,6 C 6,7 C 10,6 C 12,8 C 12,8 C 92 % 15 lf 172 cb 93 cb 67 cb 10 cb 1017,0 hPa 0,0 l/m 1,0 km/h (0 Bft) NW 319 0 min 0,000 mm 0,0 UV-I 0 W/m 8,4 C 9,6 C 4,8 km/h (1 Bft)
26.05.2019 02:30 9,6 C 6,7 C 10,6 C 12,8 C 12,8 C 92 % 15 lf 172 cb 93 cb 67 cb 10 cb 1017,0 hPa 0,0 l/m 0,8 km/h (0 Bft) NW 319 0 min 0,000 mm 0,0 UV-I 0 W/m 8,4 C 9,6 C 3,2 km/h (1 Bft)
26.05.2019 02:28 9,6 C 6,7 C 10,6 C 12,8 C 12,8 C 92 % 15 lf 172 cb 93 cb 67 cb 10 cb 1017,0 hPa 0,0 l/m 3,7 km/h (1 Bft) NW 319 0 min 0,000 mm 0,0 UV-I 0 W/m 8,4 C 9,6 C 8,0 km/h (2 Bft)
26.05.2019 02:26 9,6 C 6,7 C 10,6 C 12,8 C 12,8 C 92 % 15 lf 172 cb 93 cb 67 cb 10 cb 1017,0 hPa 0,0 l/m 2,9 km/h (1 Bft) NW 319 0 min 0,000 mm 0,0 UV-I 0 W/m 8,4 C 9,6 C 8,0 km/h (2 Bft)
26.05.2019 02:24 9,6 C 6,7 C 10,6 C 12,8 C 12,8 C 92 % 15 lf 172 cb 92 cb 67 cb 10 cb 1017,1 hPa 0,0 l/m 0,9 km/h (0 Bft) NW 322 0 min 0,000 mm 0,0 UV-I 0 W/m 8,4 C 9,6 C 6,4 km/h (2 Bft)
26.05.2019 02:22 9,6 C 6,7 C 11,1 C 12,8 C 12,8 C 92 % 15 lf 172 cb 94 cb 66 cb 10 cb 1017,1 hPa 0,0 l/m 2,4 km/h (1 Bft) NW 322 0 min 0,000 mm 0,0 UV-I 0 W/m 8,4 C 9,6 C 6,4 km/h (2 Bft)
26.05.2019 02:20 9,6 C 6,7 C 11,1 C 12,8 C 12,8 C 92 % 15 lf 172 cb 94 cb 66 cb 10 cb 1017,0 hPa 0,0 l/m 0,0 km/h (0 Bft) NW 322 0 min 0,000 mm 0,0 UV-I 0 W/m 8,4 C 9,6 C 1,6 km/h (1 Bft)
26.05.2019 02:18 9,6 C 6,7 C 11,1 C 12,8 C 12,8 C 92 % 15 lf 172 cb 93 cb 66 cb 10 cb 1017,0 hPa 0,0 l/m 0,3 km/h (0 Bft) NW 322 0 min 0,000 mm 0,0 UV-I 0 W/m 8,4 C 9,6 C 3,2 km/h (1 Bft)
26.05.2019 02:16 9,6 C 6,7 C 11,1 C 12,8 C 12,8 C 92 % 15 lf 172 cb 94 cb 66 cb 10 cb 1017,0 hPa 0,0 l/m 1,8 km/h (1 Bft) NW 322 0 min 0,000 mm 0,0 UV-I 0 W/m 8,4 C 9,6 C 3,2 km/h (1 Bft)
26.05.2019 02:14 9,7 C 6,7 C 11,1 C 12,8 C 12,8 C 93 % 15 lf 172 cb 93 cb 66 cb 10 cb 1017,1 hPa 0,0 l/m 2,2 km/h (1 Bft) NW 322 0 min 0,000 mm 0,0 UV-I 0 W/m 8,6 C 9,7 C 6,4 km/h (2 Bft)
26.05.2019 02:12 9,7 C 6,7 C 11,1 C 12,8 C 12,8 C 93 % 15 lf 172 cb 93 cb 66 cb 10 cb 1017,1 hPa 0,0 l/m 0,9 km/h (0 Bft) NW 322 0 min 0,000 mm 0,0 UV-I 0 W/m 8,6 C 9,7 C 4,8 km/h (1 Bft)
26.05.2019 02:10 9,7 C 6,7 C 11,1 C 12,8 C 12,8 C 93 % 15 lf 172 cb 93 cb 66 cb 10 cb 1017,1 hPa 0,0 l/m 2,9 km/h (1 Bft) NW 322 0 min 0,000 mm 0,0 UV-I 0 W/m 8,6 C 9,7 C 8,0 km/h (2 Bft)
26.05.2019 02:08 9,7 C 6,7 C 11,1 C 12,8 C 12,8 C 93 % 15 lf 172 cb 93 cb 66 cb 10 cb 1017,1 hPa 0,0 l/m 0,7 km/h (0 Bft) NW 324 0 min 0,000 mm 0,0 UV-I 0 W/m 8,6 C 9,7 C 6,4 km/h (2 Bft)
26.05.2019 02:06 9,7 C 6,7 C 11,1 C 12,8 C 12,8 C 93 % 15 lf 172 cb 93 cb 66 cb 10 cb 1017,2 hPa 0,0 l/m 2,3 km/h (1 Bft) NW 324 0 min 0,000 mm 0,0 UV-I 0 W/m 8,6 C 9,7 C 6,4 km/h (2 Bft)
26.05.2019 02:04 9,7 C 6,7 C 11,1 C 12,8 C 12,8 C 93 % 15 lf 172 cb 93 cb 66 cb 10 cb 1017,1 hPa 0,0 l/m 2,1 km/h (1 Bft) N-NW 329 0 min 0,000 mm 0,0 UV-I 0 W/m 8,6 C 9,7 C 4,8 km/h (1 Bft)
26.05.2019 02:02 9,6 C 6,7 C 11,1 C 12,8 C 12,8 C 93 % 15 lf 172 cb 93 cb 66 cb 10 cb 1017,2 hPa 0,0 l/m 2,4 km/h (1 Bft) N-NW 329 0 min 0,000 mm 0,0 UV-I 0 W/m 8,5 C 9,6 C 6,4 km/h (2 Bft)
26.05.2019 02:00 9,6 C 6,7 C 11,1 C 12,8 C 12,8 C 93 % 15 lf 172 cb 93 cb 66 cb 10 cb 1017,2 hPa 0,0 l/m 2,9 km/h (1 Bft) N-NW 329 0 min 0,000 mm 0,0 UV-I 0 W/m 8,5 C 9,6 C 6,4 km/h (2 Bft)
26.05.2019 01:58 9,6 C 6,7 C 11,1 C 12,8 C 13,3 C 93 % 15 lf 172 cb 93 cb 66 cb 10 cb 1017,2 hPa 0,0 l/m 3,5 km/h (1 Bft) N-NW 329 0 min 0,000 mm 0,0 UV-I 0 W/m 8,5 C 9,6 C 9,7 km/h (2 Bft)
26.05.2019 01:56 9,6 C 6,7 C 11,1 C 12,8 C 13,3 C 93 % 15 lf 172 cb 93 cb 66 cb 10 cb 1017,2 hPa 0,0 l/m 3,7 km/h (1 Bft) N-NW 333 0 min 0,000 mm 0,0 UV-I 0 W/m 8,5 C 9,6 C 6,4 km/h (2 Bft)
26.05.2019 01:54 9,6 C 6,7 C 11,1 C 12,8 C 13,3 C 92 % 15 lf 172 cb 93 cb 66 cb 10 cb 1017,2 hPa 0,0 l/m 2,3 km/h (1 Bft) N-NW 334 0 min 0,000 mm 0,0 UV-I 0 W/m 8,4 C 9,6 C 4,8 km/h (1 Bft)
26.05.2019 01:52 9,5 C 6,7 C 11,1 C 12,8 C 13,3 C 92 % 15 lf 172 cb 93 cb 66 cb 10 cb 1017,2 hPa 0,0 l/m 3,4 km/h (1 Bft) N-NW 334 0 min 0,000 mm 0,0 UV-I 0 W/m 8,3 C 9,5 C 8,0 km/h (2 Bft)
26.05.2019 01:50 9,4 C 6,7 C 11,1 C 12,8 C 13,3 C 92 % 15 lf 172 cb 93 cb 66 cb 10 cb 1017,2 hPa 0,0 l/m 3,7 km/h (1 Bft) N-NW 337 0 min 0,000 mm 0,0 UV-I 0 W/m 8,2 C 9,4 C 6,4 km/h (2 Bft)
26.05.2019 01:48 9,4 C 6,7 C 11,1 C 12,8 C 13,3 C 92 % 15 lf 172 cb 93 cb 66 cb 10 cb 1017,3 hPa 0,0 l/m 1,5 km/h (1 Bft) N-NW 338 0 min 0,000 mm 0,0 UV-I 0 W/m 8,2 C 9,4 C 4,8 km/h (1 Bft)
26.05.2019 01:46 9,4 C 6,7 C 11,1 C 12,8 C 13,3 C 92 % 15 lf 172 cb 93 cb 66 cb 10 cb 1017,3 hPa 0,0 l/m 0,9 km/h (0 Bft) N-NW 338 0 min 0,000 mm 0,0 UV-I 0 W/m 8,2 C 9,4 C 6,4 km/h (2 Bft)
26.05.2019 01:44 9,4 C 6,7 C 11,1 C 12,8 C 13,3 C 92 % 15 lf 172 cb 93 cb 66 cb 10 cb 1017,3 hPa 0,0 l/m 1,8 km/h (1 Bft) N-NW 338 0 min 0,000 mm 0,0 UV-I 0 W/m 8,2 C 9,4 C 4,8 km/h (1 Bft)
26.05.2019 01:42 9,4 C 6,7 C 11,1 C 12,8 C 13,3 C 92 % 15 lf 172 cb 93 cb 66 cb 10 cb 1017,2 hPa 0,0 l/m 0,3 km/h (0 Bft) N-NW 338 0 min 0,000 mm 0,0 UV-I 0 W/m 8,2 C 9,4 C 4,8 km/h (1 Bft)
26.05.2019 01:40 9,3 C 6,7 C 11,1 C 12,8 C 13,3 C 92 % 14 lf 172 cb 93 cb 66 cb 10 cb 1017,2 hPa 0,0 l/m 0,1 km/h (0 Bft) N-NW 338 0 min 0,000 mm 0,0 UV-I 0 W/m 8,1 C 9,3 C 1,6 km/h (1 Bft)
26.05.2019 01:38 9,3 C 6,7 C 11,1 C 12,8 C 13,3 C 92 % 14 lf 173 cb 93 cb 66 cb 10 cb 1017,2 hPa 0,0 l/m 0,6 km/h (0 Bft) N-NW 338 0 min 0,000 mm 0,0 UV-I 0 W/m 8,1 C 9,3 C 3,2 km/h (1 Bft)
26.05.2019 01:36 9,3 C 6,7 C 11,1 C 12,8 C 13,3 C 92 % 14 lf 173 cb 93 cb 65 cb 10 cb 1017,3 hPa 0,0 l/m 0,2 km/h (0 Bft) N-NW 338 0 min 0,000 mm 0,0 UV-I 0 W/m 8,1 C 9,3 C 3,2 km/h (1 Bft)
26.05.2019 01:34 9,3 C 6,1 C 11,1 C 12,8 C 13,3 C 92 % 14 lf 171 cb 93 cb 65 cb 10 cb 1017,3 hPa 0,0 l/m 0,0 km/h (0 Bft) N-NW 338 0 min 0,000 mm 0,0 UV-I 0 W/m 8,1 C 9,3 C 0,0 km/h (0 Bft)
26.05.2019 01:32 9,2 C 6,1 C 11,1 C 12,8 C 13,3 C 92 % 13 lf 171 cb 93 cb 65 cb 10 cb 1017,3 hPa 0,0 l/m 0,0 km/h (0 Bft) N-NW 338 0 min 0,000 mm 0,0 UV-I 0 W/m 8,0 C 9,2 C 0,0 km/h (0 Bft)
26.05.2019 01:30 9,2 C 6,1 C 11,1 C 12,8 C 13,3 C 91 % 13 lf 171 cb 93 cb 65 cb 10 cb 1017,3 hPa 0,0 l/m 0,1 km/h (0 Bft) N-NW 338 0 min 0,000 mm 0,0 UV-I 0 W/m 7,8 C 9,2 C 1,6 km/h (1 Bft)
26.05.2019 01:28 9,1 C 6,1 C 11,1 C 12,8 C 13,3 C 91 % 12 lf 170 cb 93 cb 65 cb 10 cb 1017,3 hPa 0,0 l/m 0,0 km/h (0 Bft) N-NW 338 0 min 0,000 mm 0,0 UV-I 0 W/m 7,7 C 9,1 C 0,0 km/h (0 Bft)
26.05.2019 01:26 9,1 C 6,1 C 11,1 C 12,8 C 13,3 C 91 % 11 lf 171 cb 93 cb 65 cb 10 cb 1017,3 hPa 0,0 l/m 0,0 km/h (0 Bft) N-NW 338 0 min 0,000 mm 0,0 UV-I 0 W/m 7,7 C 9,1 C 0,0 km/h (0 Bft)
26.05.2019 01:24 9,0 C 6,1 C 11,1 C 12,8 C 13,3 C 91 % 10 lf 171 cb 93 cb 65 cb 10 cb 1017,3 hPa 0,0 l/m 0,0 km/h (0 Bft) N-NW 338 0 min 0,000 mm 0,0 UV-I 0 W/m 7,6 C 9,0 C 0,0 km/h (0 Bft)
26.05.2019 01:22 8,9 C 6,1 C 11,1 C 12,8 C 13,3 C 90 % 9 lf 171 cb 93 cb 65 cb 10 cb 1017,3 hPa 0,0 l/m 0,3 km/h (0 Bft) N-NW 338 0 min 0,000 mm 0,0 UV-I 0 W/m 7,4 C 8,9 C 3,2 km/h (1 Bft)
26.05.2019 01:20 8,9 C 6,1 C 11,1 C 12,8 C 13,3 C 90 % 9 lf 171 cb 93 cb 65 cb 10 cb 1017,3 hPa 0,0 l/m 0,0 km/h (0 Bft) N-NW 338 0 min 0,000 mm 0,0 UV-I 0 W/m 7,4 C 8,9 C 0,0 km/h (0 Bft)
26.05.2019 01:18 8,8 C 6,1 C 11,1 C 12,8 C 13,3 C 90 % 8 lf 171 cb 93 cb 65 cb 10 cb 1017,4 hPa 0,0 l/m 1,4 km/h (1 Bft) N-NW 338 0 min 0,000 mm 0,0 UV-I 0 W/m 7,3 C 8,8 C 4,8 km/h (1 Bft)
26.05.2019 01:16 8,8 C 6,1 C 11,1 C 12,8 C 13,3 C 89 % 6 lf 170 cb 93 cb 65 cb 10 cb 1017,4 hPa 0,0 l/m 0,0 km/h (0 Bft) N-NW 338 0 min 0,000 mm 0,0 UV-I 0 W/m 7,1 C 8,8 C 0,0 km/h (0 Bft)
26.05.2019 01:14 8,8 C 6,1 C 11,1 C 12,8 C 13,3 C 89 % 5 lf 170 cb 93 cb 65 cb 10 cb 1017,4 hPa 0,0 l/m 0,0 km/h (0 Bft) N-NW 338 0 min 0,000 mm 0,0 UV-I 0 W/m 7,1 C 8,8 C 0,0 km/h (0 Bft)
26.05.2019 01:12 8,8 C 6,1 C 11,1 C 12,8 C 13,3 C 89 % 5 lf 170 cb 93 cb 65 cb 10 cb 1017,4 hPa 0,0 l/m 0,0 km/h (0 Bft) N-NW 338 0 min 0,000 mm 0,0 UV-I 0 W/m 7,1 C 8,8 C 0,0 km/h (0 Bft)
26.05.2019 01:10 8,9 C 6,1 C 11,1 C 12,8 C 13,3 C 89 % 4 lf 170 cb 93 cb 65 cb 10 cb 1017,4 hPa 0,0 l/m 0,0 km/h (0 Bft) N-NW 338 0 min 0,000 mm 0,0 UV-I 0 W/m 7,2 C 8,9 C 0,0 km/h (0 Bft)
26.05.2019 01:08 8,9 C 6,1 C 11,1 C 12,8 C 13,3 C 89 % 4 lf 170 cb 93 cb 65 cb 10 cb 1017,4 hPa 0,0 l/m 0,0 km/h (0 Bft) N-NW 338 0 min 0,000 mm 0,0 UV-I 0 W/m 7,2 C 8,9 C 0,0 km/h (0 Bft)
26.05.2019 01:06 8,9 C 6,1 C 11,1 C 12,8 C 13,3 C 89 % 4 lf 171 cb 93 cb 65 cb 10 cb 1017,4 hPa 0,0 l/m 0,0 km/h (0 Bft) N-NW 338 0 min 0,000 mm 0,0 UV-I 0 W/m 7,2 C 8,9 C 0,0 km/h (0 Bft)
26.05.2019 01:04 9,0 C 6,1 C 11,1 C 12,8 C 13,3 C 89 % 4 lf 170 cb 93 cb 65 cb 10 cb 1017,4 hPa 0,0 l/m 0,0 km/h (0 Bft) N-NW 338 0 min 0,000 mm 0,0 UV-I 0 W/m 7,3 C 9,0 C 0,0 km/h (0 Bft)
26.05.2019 01:03 9,0 C 6,1 C 11,1 C 12,8 C 13,3 C 89 % 4 lf 170 cb 93 cb 65 cb 10 cb 1017,4 hPa 0,0 l/m 0,0 km/h (0 Bft) N-NW 338 0 min 0,000 mm 0,0 UV-I 0 W/m 7,3 C 9,0 C 0,0 km/h (0 Bft)
26.05.2019 01:02 9,1 C 6,1 C 11,1 C 12,8 C 13,3 C 89 % 4 lf 170 cb 93 cb 65 cb 10 cb 1017,4 hPa 0,0 l/m 0,0 km/h (0 Bft) N-NW 338 0 min 0,000 mm 0,0 UV-I 0 W/m 7,4 C 9,1 C 0,0 km/h (0 Bft)
26.05.2019 01:00 9,1 C 6,1 C 11,1 C 12,8 C 13,3 C 89 % 4 lf 170 cb 93 cb 64 cb 10 cb 1017,5 hPa 0,0 l/m 0,0 km/h (0 Bft) N-NW 338 0 min 0,000 mm 0,0 UV-I 0 W/m 7,4 C 9,1 C 0,0 km/h (0 Bft)
26.05.2019 00:58 9,1 C 6,1 C 11,1 C 12,8 C 13,3 C 89 % 4 lf 170 cb 93 cb 64 cb 10 cb 1017,5 hPa 0,0 l/m 0,0 km/h (0 Bft) N-NW 338 0 min 0,000 mm 0,0 UV-I 0 W/m 7,4 C 9,1 C 0,0 km/h (0 Bft)
26.05.2019 00:56 9,1 C 6,1 C 11,1 C 12,8 C 13,3 C 89 % 5 lf 170 cb 93 cb 64 cb 10 cb 1017,5 hPa 0,0 l/m 0,0 km/h (0 Bft) N-NW 338 0 min 0,000 mm 0,0 UV-I 0 W/m 7,4 C 9,1 C 0,0 km/h (0 Bft)
26.05.2019 00:54 9,1 C 6,1 C 11,1 C 12,8 C 13,3 C 89 % 5 lf 169 cb 93 cb 64 cb 10 cb 1017,5 hPa 0,0 l/m 0,5 km/h (0 Bft) N-NW 338 0 min 0,000 mm 0,0 UV-I 0 W/m 7,4 C 9,1 C 4,8 km/h (1 Bft)
26.05.2019 00:52 9,1 C 6,1 C 11,1 C 12,8 C 13,3 C 89 % 5 lf 169 cb 93 cb 64 cb 10 cb 1017,5 hPa 0,0 l/m 0,0 km/h (0 Bft) N-NW 338 0 min 0,000 mm 0,0 UV-I 0 W/m 7,4 C 9,1 C 0,0 km/h (0 Bft)
26.05.2019 00:50 9,0 C 6,1 C 11,1 C 12,8 C 13,3 C 89 % 4 lf 169 cb 93 cb 64 cb 10 cb 1017,6 hPa 0,0 l/m 0,7 km/h (0 Bft) N-NW 338 0 min 0,000 mm 0,0 UV-I 0 W/m 7,3 C 9,0 C 3,2 km/h (1 Bft)
26.05.2019 00:48 9,0 C 6,1 C 11,1 C 12,8 C 13,3 C 89 % 4 lf 169 cb 93 cb 64 cb 10 cb 1017,6 hPa 0,0 l/m 1,0 km/h (0 Bft) N-NW 338 0 min 0,000 mm 0,0 UV-I 0 W/m 7,3 C 9,0 C 3,2 km/h (1 Bft)
26.05.2019 00:46 9,0 C 6,1 C 11,1 C 13,3 C 13,3 C 89 % 4 lf 169 cb 92 cb 65 cb 10 cb 1017,6 hPa 0,0 l/m 0,0 km/h (0 Bft) N-NW 338 0 min 0,000 mm 0,0 UV-I 0 W/m 7,3 C 9,0 C 0,0 km/h (0 Bft)
26.05.2019 00:44 8,9 C 6,1 C 11,1 C 13,3 C 13,3 C 89 % 4 lf 169 cb 92 cb 65 cb 10 cb 1017,7 hPa 0,0 l/m 0,0 km/h (0 Bft) N-NW 338 0 min 0,000 mm 0,0 UV-I 0 W/m 7,2 C 8,9 C 0,0 km/h (0 Bft)
26.05.2019 00:42 8,9 C 6,1 C 11,1 C 13,3 C 13,3 C 89 % 4 lf 169 cb 92 cb 65 cb 10 cb 1017,6 hPa 0,0 l/m 0,0 km/h (0 Bft) N-NW 338 0 min 0,000 mm 0,0 UV-I 0 W/m 7,2 C 8,9 C 0,0 km/h (0 Bft)
26.05.2019 00:40 8,9 C 6,1 C 11,1 C 13,3 C 13,3 C 89 % 4 lf 169 cb 92 cb 64 cb 10 cb 1017,7 hPa 0,0 l/m 0,0 km/h (0 Bft) N-NW 338 0 min 0,000 mm 0,0 UV-I 0 W/m 7,2 C 8,9 C 0,0 km/h (0 Bft)
26.05.2019 00:38 8,9 C 6,1 C 11,1 C 13,3 C 13,3 C 89 % 4 lf 169 cb 92 cb 64 cb 10 cb 1017,7 hPa 0,0 l/m 0,0 km/h (0 Bft) N-NW 338 0 min 0,000 mm 0,0 UV-I 0 W/m 7,2 C 8,9 C 0,0 km/h (0 Bft)
26.05.2019 00:36 8,9 C 6,1 C 11,1 C 13,3 C 13,3 C 89 % 4 lf 169 cb 92 cb 64 cb 10 cb 1017,7 hPa 0,0 l/m 0,0 km/h (0 Bft) N-NW 338 0 min 0,000 mm 0,0 UV-I 0 W/m 7,2 C 8,9 C 0,0 km/h (0 Bft)
26.05.2019 00:34 8,9 C 6,1 C 11,1 C 13,3 C 13,3 C 89 % 4 lf 169 cb 92 cb 64 cb 10 cb 1017,7 hPa 0,0 l/m 0,0 km/h (0 Bft) N-NW 338 0 min 0,000 mm 0,0 UV-I 0 W/m 7,2 C 8,9 C 0,0 km/h (0 Bft)
26.05.2019 00:32 8,9 C 6,1 C 11,1 C 13,3 C 13,3 C 89 % 4 lf 169 cb 92 cb 64 cb 10 cb 1017,7 hPa 0,0 l/m 0,0 km/h (0 Bft) N-NW 338 0 min 0,000 mm 0,0 UV-I 0 W/m 7,2 C 8,9 C 1,6 km/h (1 Bft)
26.05.2019 00:30 8,9 C 6,1 C 11,1 C 13,3 C 13,3 C 89 % 4 lf 169 cb 92 cb 64 cb 10 cb 1017,7 hPa 0,0 l/m 0,0 km/h (0 Bft) N-NW 338 0 min 0,000 mm 0,0 UV-I 0 W/m 7,2 C 8,9 C 0,0 km/h (0 Bft)
26.05.2019 00:28 8,9 C 6,1 C 11,1 C 13,3 C 13,3 C 88 % 4 lf 169 cb 92 cb 64 cb 10 cb 1017,7 hPa 0,0 l/m 0,1 km/h (0 Bft) N-NW 338 0 min 0,000 mm 0,0 UV-I 0 W/m 7,0 C 8,9 C 3,2 km/h (1 Bft)
26.05.2019 00:26 8,9 C 6,1 C 11,7 C 13,3 C 13,3 C 88 % 4 lf 169 cb 93 cb 64 cb 10 cb 1017,7 hPa 0,0 l/m 0,2 km/h (0 Bft) N-NW 338 0 min 0,000 mm 0,0 UV-I 0 W/m 7,0 C 8,9 C 1,6 km/h (1 Bft)
26.05.2019 00:24 8,9 C 6,1 C 11,7 C 13,3 C 13,3 C 88 % 4 lf 169 cb 93 cb 64 cb 10 cb 1017,7 hPa 0,0 l/m 0,0 km/h (0 Bft) N-NW 338 0 min 0,000 mm 0,0 UV-I 0 W/m 7,0 C 8,9 C 0,0 km/h (0 Bft)
26.05.2019 00:22 8,9 C 6,1 C 11,7 C 13,3 C 13,3 C 88 % 4 lf 169 cb 93 cb 64 cb 10 cb 1017,7 hPa 0,0 l/m 0,0 km/h (0 Bft) N-NW 338 0 min 0,000 mm 0,0 UV-I 0 W/m 7,0 C 8,9 C 0,0 km/h (0 Bft)
26.05.2019 00:20 8,9 C 6,1 C 11,7 C 13,3 C 13,3 C 88 % 3 lf 169 cb 93 cb 64 cb 10 cb 1017,7 hPa 0,0 l/m 0,0 km/h (0 Bft) N-NW 338 0 min 0,000 mm 0,0 UV-I 0 W/m 7,0 C 8,9 C 0,0 km/h (0 Bft)
26.05.2019 00:18 9,0 C 6,1 C 11,7 C 13,3 C 13,3 C 88 % 3 lf 169 cb 93 cb 64 cb 10 cb 1017,8 hPa 0,0 l/m 0,0 km/h (0 Bft) N-NW 338 0 min 0,000 mm 0,0 UV-I 0 W/m 7,1 C 9,0 C 0,0 km/h (0 Bft)
26.05.2019 00:16 9,0 C 6,1 C 11,7 C 13,3 C 13,3 C 88 % 3 lf 169 cb 93 cb 64 cb 10 cb 1017,8 hPa 0,0 l/m 0,0 km/h (0 Bft) N-NW 338 0 min 0,000 mm 0,0 UV-I 0 W/m 7,1 C 9,0 C 0,0 km/h (0 Bft)
26.05.2019 00:14 9,1 C 6,1 C 11,7 C 13,3 C 13,3 C 88 % 3 lf 169 cb 93 cb 64 cb 10 cb 1017,8 hPa 0,0 l/m 0,0 km/h (0 Bft) N-NW 338 0 min 0,000 mm 0,0 UV-I 0 W/m 7,2 C 9,1 C 0,0 km/h (0 Bft)
26.05.2019 00:12 9,1 C 6,1 C 11,7 C 13,3 C 13,3 C 88 % 3 lf 169 cb 93 cb 64 cb 10 cb 1017,8 hPa 0,0 l/m 0,0 km/h (0 Bft) N-NW 338 0 min 0,000 mm 0,0 UV-I 0 W/m 7,2 C 9,1 C 0,0 km/h (0 Bft)
26.05.2019 00:10 9,1 C 6,1 C 11,7 C 13,3 C 13,3 C 88 % 3 lf 169 cb 93 cb 64 cb 10 cb 1017,8 hPa 0,0 l/m 0,0 km/h (0 Bft) N-NW 338 0 min 0,000 mm 0,0 UV-I 0 W/m 7,2 C 9,1 C 0,0 km/h (0 Bft)
26.05.2019 00:08 9,1 C 6,1 C 11,7 C 13,3 C 13,3 C 87 % 3 lf 168 cb 93 cb 64 cb 10 cb 1017,8 hPa 0,0 l/m 0,0 km/h (0 Bft) N-NW 338 0 min 0,000 mm 0,0 UV-I 0 W/m 7,1 C 9,1 C 0,0 km/h (0 Bft)
26.05.2019 00:07 9,1 C 6,1 C 11,7 C 13,3 C 13,3 C 87 % 3 lf 168 cb 93 cb 64 cb 10 cb 1017,8 hPa 0,0 l/m 0,0 km/h (0 Bft) N-NW 338 0 min 0,000 mm 0,0 UV-I 0 W/m 7,1 C 9,1 C 0,0 km/h (0 Bft)
26.05.2019 00:06 9,1 C 6,1 C 11,7 C 13,3 C 13,3 C 87 % 4 lf 168 cb 93 cb 64 cb 10 cb 1017,8 hPa 0,0 l/m 0,0 km/h (0 Bft) N-NW 338 0 min 0,000 mm 0,0 UV-I 0 W/m 7,1 C 9,1 C 0,0 km/h (0 Bft)
26.05.2019 00:05 9,2 C 6,1 C 11,7 C 13,3 C 13,3 C 87 % 4 lf 168 cb 93 cb 64 cb 10 cb 1017,8 hPa 0,0 l/m 0,0 km/h (0 Bft) N-NW 338 0 min 0,000 mm 0,0 UV-I 0 W/m 7,2 C 9,2 C 0,0 km/h (0 Bft)
26.05.2019 00:04 9,2 C 6,1 C 11,7 C 13,3 C 13,3 C 87 % 4 lf 168 cb 93 cb 63 cb 10 cb 1017,8 hPa 0,0 l/m 0,0 km/h (0 Bft) N-NW 338 0 min 0,000 mm 0,0 UV-I 0 W/m 7,2 C 9,2 C 0,0 km/h (0 Bft)
26.05.2019 00:03 9,2 C 6,1 C 11,7 C 13,3 C 13,3 C 87 % 4 lf 168 cb 93 cb 63 cb 10 cb 1017,8 hPa 0,0 l/m 0,0 km/h (0 Bft) N-NW 338 0 min 0,000 mm 0,0 UV-I 0 W/m 7,2 C 9,2 C 0,0 km/h (0 Bft)
26.05.2019 00:01 9,2 C 6,1 C 11,7 C 13,3 C 13,3 C 87 % 4 lf 168 cb 93 cb 63 cb 10 cb 1017,8 hPa 0,0 l/m 0,0 km/h (0 Bft) N-NW 338 0 min 0,000 mm 0,0 UV-I 0 W/m 7,2 C 9,2 C 0,0 km/h (0 Bft)
_ Min-Zeit 04:54 00:01 05:08 04:52 08:19 11:17 06:57 00:01 00:28 00:01 04:44 12:45 - 00:01 - - - - - - 00:20 04:54 00:01
Minimum _ 8,7 C 6,1 C 10,0 C 11,7 C 11,7 C 61 % 0 lf 168 cb 92 cb 63 cb 9 cb 1015,0 hPa - 0,0 km/h (0 Bft) - - - - - - 7,0 C 8,7 C 0,0 km/h (0 Bft)
_ Max-Zeit 12:55 12:27 12:53 12:55 00:01 03:44 01:42 12:27 12:33 12:15 00:01 00:01 00:01 12:09 - - 07:13 11:01 11:22 11:23 12:41 12:41 08:49
Maximum _ 18,7 C 24,4 C 17,8 C 14,4 C 13,3 C 94 % 15 lf 193 cb 99 cb 79 cb 10 cb 1017,8 hPa 0,0 l/m 11,9 km/h
W-SW (2 Bft)
- - 2 min 0,330 mm 5,6 UV-I 809 W/m 11,9 C 18,6 C 24,1 km/h
SW (4 Bft)
Durchschnitt _ 12,2 C 11,1 C 12,0 C 12,5 C 12,5 C 83 % 6 lf 175 cb 94 cb 72 cb 10 cb 1016,3 hPa #0,0 l/m 3,1 km/h (1 Bft) W - #3:23 h #1,092 mm 3,0 UV-I 317 W/m 9,2 C 12,1 C 8,1 km/h (2 Bft)